VIR24 KMCO-LOWW

Flight info

Callsign VIR24
Flight time 9h 55m
Altitude 33000
Route MZULO3 LENDS COACH EAAGL HAAYY AZEZU KN57E LACKS JOBOC 4160N 4250N 4340N 4330N 4320N MUDOS ROXER NOLSA MARIO SINDO PIVUS DIBER NETUP STP RAPED PIGOS EKSID NOSTA LUKIM MALUG ARALD ABTAN
Aircraft A35K/H-SDE2E3GHIJ3J4J5LM1ORWXY/LB1D1

Departure

Time 2026-04-25 12:40
Airport Orlando International Airport (KMCO)

Arrival

Time 2026-04-25 22:35
Airport Vienna International Airport (LOWW)
Time Latitude Longitude Altitude Speed Heading
2026-04-25 12:13 28.42914 -81.30003 109 ft 0 kts 219°
2026-04-25 12:22 28.42918 -81.30000 109 ft 3 kts 219°
2026-04-25 12:22 28.42939 -81.29982 107 ft 4 kts 208°
2026-04-25 12:23 28.42961 -81.29974 106 ft 4 kts 151°
2026-04-25 12:23 28.42967 -81.29980 106 ft 0 kts 119°
2026-04-25 12:27 28.42963 -81.29972 109 ft 5 kts 119°
2026-04-25 12:27 28.42942 -81.29933 108 ft 5 kts 122°
2026-04-25 12:28 28.42923 -81.29894 108 ft 0 kts 112°
2026-04-25 12:29 28.42923 -81.29893 108 ft 1 kts 111°
2026-04-25 12:29 28.42920 -81.29882 108 ft 2 kts 103°
2026-04-25 12:29 28.42918 -81.29859 106 ft 4 kts 95°
2026-04-25 12:29 28.42932 -81.29820 108 ft 6 kts 40°
2026-04-25 12:30 28.42981 -81.29805 109 ft 9 kts
2026-04-25 12:30 28.43063 -81.29802 107 ft 11 kts 359°
2026-04-25 12:30 28.43112 -81.29802 108 ft 7 kts 360°
2026-04-25 12:30 28.43165 -81.29802 109 ft 8 kts 360°
2026-04-25 12:31 28.43225 -81.29803 109 ft 9 kts 360°
2026-04-25 12:31 28.43292 -81.29803 109 ft 10 kts 360°
2026-04-25 12:31 28.43359 -81.29804 109 ft 7 kts 359°
2026-04-25 12:31 28.43394 -81.29804 109 ft 0 kts 359°
2026-04-25 12:32 28.43395 -81.29804 109 ft 1 kts 359°
2026-04-25 12:32 28.43403 -81.29804 109 ft 3 kts 359°
2026-04-25 12:32 28.43439 -81.29805 109 ft 8 kts 359°
2026-04-25 12:32 28.43504 -81.29806 109 ft 9 kts
2026-04-25 12:33 28.43547 -81.29762 108 ft 9 kts 69°
2026-04-25 12:33 28.43550 -81.29728 109 ft 0 kts 89°
2026-04-25 12:35 28.43550 -81.29687 109 ft 8 kts 91°
2026-04-25 12:35 28.43547 -81.29628 109 ft 6 kts 97°
2026-04-25 12:35 28.43528 -81.29590 108 ft 4 kts 135°
2026-04-25 12:35 28.43516 -81.29589 109 ft 0 kts 177°
2026-04-25 12:39 28.43287 -81.29584 111 ft 64 kts 180°
2026-04-25 12:39 28.42642 -81.29579 106 ft 120 kts 179°
2026-04-25 12:39 28.41639 -81.29571 112 ft 167 kts 179°
2026-04-25 12:39 28.40479 -81.29545 677 ft 160 kts 179°
2026-04-25 12:40 28.39432 -81.29151 1161 ft 161 kts 144°
2026-04-25 12:40 28.38390 -81.28543 1426 ft 179 kts 160°
2026-04-25 12:40 28.37174 -81.27970 1612 ft 201 kts 158°
2026-04-25 12:40 28.35835 -81.27277 1811 ft 223 kts 156°
2026-04-25 12:41 28.34473 -81.26257 1984 ft 248 kts 139°
2026-04-25 12:41 28.33265 -81.24797 2453 ft 258 kts 128°
2026-04-25 12:41 28.32414 -81.22988 3017 ft 264 kts 107°
2026-04-25 12:41 28.32310 -81.20927 3616 ft 265 kts 76°
2026-04-25 12:42 28.32931 -81.18964 4254 ft 266 kts 65°
2026-04-25 12:42 28.33176 -81.18345 4460 ft 266 kts 65°
2026-04-25 12:42 28.34495 -81.15125 5491 ft 270 kts 64°
2026-04-25 12:42 28.35289 -81.13183 6143 ft 272 kts 64°
2026-04-25 12:43 28.36078 -81.11246 6769 ft 275 kts 64°
2026-04-25 12:43 28.36886 -81.09255 7353 ft 280 kts 64°
2026-04-25 12:43 28.38537 -81.05180 8630 ft 288 kts 64°
2026-04-25 12:44 28.39378 -81.03103 9275 ft 291 kts 64°
2026-04-25 12:44 28.40229 -81.00997 9913 ft 296 kts 63°
2026-04-25 12:44 28.42014 -80.96585 10599 ft 324 kts 63°
2026-04-25 12:45 28.42977 -80.94203 10847 ft 340 kts 63°
2026-04-25 12:45 28.43988 -80.91698 11086 ft 356 kts 64°
2026-04-25 12:45 28.46134 -80.86371 11577 ft 384 kts 64°
2026-04-25 12:46 28.47223 -80.83567 11990 ft 392 kts 68°
2026-04-25 12:46 28.47910 -80.80548 12473 ft 398 kts 80°
2026-04-25 12:46 28.48286 -80.77414 12976 ft 402 kts 82°
2026-04-25 12:46 28.48623 -80.74252 13468 ft 406 kts 82°
2026-04-25 12:47 28.48967 -80.71049 13923 ft 409 kts 82°
2026-04-25 12:47 28.49319 -80.67820 14351 ft 413 kts 82°
2026-04-25 12:47 28.49673 -80.64596 14733 ft 416 kts 82°
2026-04-25 12:47 28.50035 -80.61300 15146 ft 419 kts 81°
2026-04-25 12:48 28.50399 -80.57998 15572 ft 422 kts 81°
2026-04-25 12:48 28.50764 -80.54677 15994 ft 425 kts 81°
2026-04-25 12:48 28.51132 -80.51326 16400 ft 430 kts 81°
2026-04-25 12:48 28.51504 -80.47938 16810 ft 433 kts 81°
2026-04-25 12:49 28.51877 -80.44527 17242 ft 437 kts 81°
2026-04-25 12:49 28.52126 -80.42251 17526 ft 439 kts 81°
2026-04-25 12:49 28.52630 -80.37625 18100 ft 443 kts 81°
2026-04-25 12:49 28.52882 -80.35312 18367 ft 446 kts 81°
2026-04-25 12:50 28.53275 -80.31806 18766 ft 448 kts 79°
2026-04-25 12:50 28.53961 -80.28350 19200 ft 448 kts 69°
2026-04-25 12:50 28.55082 -80.25052 19621 ft 448 kts 64°
2026-04-25 12:50 28.56320 -80.21794 20040 ft 450 kts 64°
2026-04-25 12:51 28.57576 -80.18519 20472 ft 453 kts 64°
2026-04-25 12:51 28.58837 -80.15218 20928 ft 455 kts 64°
2026-04-25 12:51 28.60095 -80.11911 21387 ft 457 kts 64°
2026-04-25 12:51 28.61354 -80.08590 21846 ft 458 kts 64°
2026-04-25 12:52 28.62620 -80.05247 22282 ft 461 kts 64°
2026-04-25 12:52 28.63889 -80.01889 22728 ft 463 kts 64°
2026-04-25 12:52 28.65164 -79.98512 23178 ft 466 kts 65°
2026-04-25 12:52 28.66446 -79.95113 23605 ft 468 kts 65°
2026-04-25 12:53 28.67733 -79.91697 23979 ft 471 kts 65°
2026-04-25 12:53 28.69026 -79.88263 24371 ft 473 kts 65°
2026-04-25 12:53 28.70322 -79.84817 24776 ft 475 kts 65°
2026-04-25 12:53 28.71623 -79.81354 25167 ft 477 kts 65°
2026-04-25 12:54 28.72929 -79.77873 25553 ft 479 kts 65°
2026-04-25 12:54 28.73666 -79.75910 25758 ft 481 kts 65°
2026-04-25 12:54 28.74796 -79.72893 26098 ft 482 kts 65°
2026-04-25 12:54 28.76116 -79.69370 26484 ft 484 kts 65°
2026-04-25 12:55 28.77439 -79.65833 26867 ft 486 kts 65°
2026-04-25 12:55 28.78317 -79.63484 27113 ft 488 kts 65°
2026-04-25 12:55 28.80107 -79.58719 27601 ft 490 kts 64°
2026-04-25 12:55 28.81687 -79.55279 27947 ft 490 kts 56°
2026-04-25 12:56 28.83574 -79.52101 28296 ft 491 kts 53°
2026-04-25 12:56 28.85567 -79.48934 28671 ft 492 kts 52°
2026-04-25 12:56 28.87570 -79.45764 29011 ft 494 kts 52°
2026-04-25 12:56 28.89579 -79.42576 29322 ft 496 kts 53°
2026-04-25 12:57 28.91595 -79.39372 29570 ft 499 kts 53°
2026-04-25 12:57 28.93614 -79.36156 29955 ft 498 kts 53°
2026-04-25 12:57 28.95627 -79.32944 30384 ft 496 kts 53°
2026-04-25 12:57 28.97632 -79.29743 30720 ft 496 kts 53°
2026-04-25 12:58 28.99635 -79.26542 31030 ft 495 kts 53°
2026-04-25 12:58 29.01636 -79.23341 31330 ft 495 kts 53°
2026-04-25 12:58 29.03638 -79.20138 31650 ft 495 kts 53°
2026-04-25 12:58 29.05636 -79.16938 31959 ft 494 kts 53°
2026-04-25 12:59 29.07631 -79.13739 32251 ft 494 kts 53°
2026-04-25 12:59 29.09623 -79.10543 32545 ft 493 kts 53°
2026-04-25 12:59 29.11611 -79.07351 32882 ft 492 kts 53°
2026-04-25 12:59 29.13597 -79.04159 32985 ft 495 kts 53°
2026-04-25 13:00 29.16934 -78.98793 32991 ft 500 kts 53°
2026-04-25 13:00 29.21633 -78.91222 32994 ft 499 kts 53°
2026-04-25 13:01 29.25649 -78.84741 32992 ft 499 kts 53°
2026-04-25 13:01 29.29660 -78.78259 32990 ft 499 kts 53°
2026-04-25 13:02 29.33664 -78.71776 32991 ft 499 kts 53°
2026-04-25 13:02 29.37671 -78.65279 32994 ft 499 kts 53°
2026-04-25 13:03 29.41678 -78.58780 32994 ft 499 kts 53°
2026-04-25 13:03 29.45693 -78.52275 32992 ft 499 kts 53°
2026-04-25 13:04 29.49711 -78.45770 32992 ft 499 kts 53°
2026-04-25 13:04 29.53733 -78.39265 32993 ft 499 kts 53°
2026-04-25 13:05 29.57738 -78.32813 32990 ft 499 kts 52°
2026-04-25 13:05 29.62508 -78.27082 32991 ft 495 kts 36°
2026-04-25 13:06 29.68492 -78.23286 32995 ft 491 kts 18°
2026-04-25 13:06 29.75126 -78.21503 32993 ft 490 kts
2026-04-25 13:07 29.81888 -78.20452 32993 ft 490 kts
2026-04-25 13:07 29.88659 -78.19461 32995 ft 490 kts
2026-04-25 13:08 29.95419 -78.18387 32990 ft 491 kts
2026-04-25 13:08 30.02174 -78.17263 32987 ft 491 kts
2026-04-25 13:09 30.08930 -78.16127 32984 ft 491 kts
2026-04-25 13:09 30.15688 -78.14991 32984 ft 491 kts
2026-04-25 13:10 30.22448 -78.13856 32987 ft 491 kts
2026-04-25 13:10 30.29203 -78.12721 32986 ft 491 kts
2026-04-25 13:11 30.35955 -78.11586 32990 ft 491 kts
2026-04-25 13:11 30.42709 -78.10448 32992 ft 491 kts
2026-04-25 13:12 30.49432 -78.09314 32990 ft 491 kts
2026-04-25 13:12 30.55086 -78.08359 32989 ft 491 kts
2026-04-25 13:13 30.63004 -78.07019 32989 ft 491 kts
2026-04-25 13:13 30.69722 -78.05881 32989 ft 491 kts
2026-04-25 13:14 30.76531 -78.04726 32985 ft 491 kts
2026-04-25 13:14 30.83248 -78.03585 32984 ft 491 kts
2026-04-25 13:15 30.89932 -78.02447 32984 ft 491 kts
2026-04-25 13:15 30.96693 -78.01296 32985 ft 491 kts
2026-04-25 13:16 31.03449 -78.00140 32976 ft 491 kts
2026-04-25 13:16 31.10006 -77.97895 32981 ft 493 kts 24°
2026-04-25 13:17 31.16037 -77.94051 32985 ft 495 kts 30°
2026-04-25 13:17 31.21893 -77.89768 32969 ft 497 kts 31°
2026-04-25 13:18 31.27737 -77.85443 32982 ft 497 kts 31°
2026-04-25 13:18 31.33598 -77.81163 32987 ft 496 kts 31°
2026-04-25 13:19 31.39466 -77.76908 32970 ft 496 kts 31°
2026-04-25 13:19 31.43391 -77.74055 32967 ft 496 kts 31°
2026-04-25 13:20 31.51199 -77.68381 32984 ft 495 kts 31°
2026-04-25 13:20 31.57055 -77.64131 32978 ft 494 kts 31°
2026-04-25 13:21 31.62898 -77.59876 32969 ft 494 kts 31°
2026-04-25 13:21 31.68741 -77.55607 32985 ft 496 kts 31°
2026-04-25 13:22 31.74597 -77.51324 32974 ft 496 kts 31°
2026-04-25 13:23 31.83369 -77.44903 32974 ft 495 kts 31°
2026-04-25 13:23 31.89207 -77.40619 32973 ft 495 kts 31°
2026-04-25 13:24 31.95040 -77.36331 32978 ft 495 kts 31°
2026-04-25 13:24 32.00873 -77.32037 32974 ft 494 kts 32°
2026-04-25 13:25 32.06698 -77.27742 32976 ft 493 kts 31°
2026-04-25 13:25 32.12516 -77.23447 32971 ft 493 kts 31°
2026-04-25 13:26 32.18305 -77.19166 32972 ft 495 kts 32°
2026-04-25 13:26 32.24184 -77.14826 32973 ft 495 kts 31°
2026-04-25 13:27 32.30018 -77.10600 32974 ft 495 kts 31°
2026-04-25 13:27 32.35889 -77.06362 32975 ft 494 kts 31°
2026-04-25 13:28 32.41756 -77.02109 32966 ft 495 kts 31°
2026-04-25 13:28 32.47618 -76.97845 32965 ft 494 kts 31°
2026-04-25 13:29 32.53477 -76.93575 32969 ft 494 kts 31°
2026-04-25 13:29 32.59334 -76.89299 32969 ft 494 kts 31°
2026-04-25 13:30 32.68122 -76.82872 32967 ft 495 kts 31°
2026-04-25 13:31 32.76924 -76.76420 32967 ft 496 kts 31°
2026-04-25 13:31 32.82793 -76.72110 32969 ft 496 kts 31°
2026-04-25 13:32 32.88655 -76.67796 33081 ft 494 kts 31°
2026-04-25 13:32 32.91572 -76.65648 33470 ft 491 kts 31°
2026-04-25 13:32 32.94468 -76.63513 33841 ft 489 kts 31°
2026-04-25 13:32 32.97356 -76.61383 34120 ft 487 kts 32°
2026-04-25 13:33 33.00219 -76.59270 34462 ft 483 kts 32°
2026-04-25 13:33 33.03074 -76.57160 34785 ft 480 kts 31°
2026-04-25 13:33 33.05903 -76.55067 35041 ft 478 kts 31°
2026-04-25 13:34 33.11333 -76.51047 35507 ft 475 kts 31°
2026-04-25 13:34 33.14138 -76.48969 35665 ft 475 kts 31°
2026-04-25 13:34 33.16954 -76.46881 35729 ft 477 kts 31°
2026-04-25 13:34 33.19770 -76.44791 35905 ft 476 kts 31°
2026-04-25 13:35 33.22577 -76.42706 36153 ft 474 kts 31°
2026-04-25 13:35 33.25367 -76.40634 36419 ft 471 kts 31°
2026-04-25 13:35 33.28150 -76.38563 36547 ft 471 kts 31°
2026-04-25 13:35 33.30926 -76.36492 36656 ft 471 kts 31°
2026-04-25 13:36 33.33707 -76.34414 36800 ft 471 kts 31°
2026-04-25 13:36 33.36483 -76.32341 36935 ft 470 kts 31°
2026-04-25 13:36 33.39257 -76.30271 37051 ft 470 kts 31°
2026-04-25 13:36 33.41995 -76.28226 37166 ft 470 kts 31°
2026-04-25 13:37 33.44763 -76.26157 37300 ft 469 kts 31°
2026-04-25 13:37 33.47525 -76.24091 37437 ft 468 kts 31°
2026-04-25 13:37 33.49389 -76.22698 37519 ft 468 kts 31°
2026-04-25 13:37 33.53046 -76.19960 37661 ft 467 kts 31°
2026-04-25 13:38 33.55802 -76.17895 37722 ft 467 kts 31°
2026-04-25 13:38 33.58556 -76.15830 37827 ft 467 kts 31°
2026-04-25 13:38 33.60417 -76.14433 37892 ft 467 kts 31°
2026-04-25 13:39 33.65929 -76.10291 37981 ft 468 kts 31°
2026-04-25 13:39 33.71440 -76.06143 38136 ft 468 kts 30°
2026-04-25 13:40 33.76953 -76.01987 38267 ft 467 kts 30°
2026-04-25 13:40 33.82455 -75.97835 38406 ft 467 kts 30°
2026-04-25 13:41 33.87956 -75.93677 38525 ft 467 kts 31°
2026-04-25 13:41 33.93423 -75.89538 38541 ft 468 kts 30°
2026-04-25 13:41 33.96177 -75.87450 38647 ft 467 kts 30°
2026-04-25 13:42 33.98923 -75.85367 38709 ft 466 kts 30°
2026-04-25 13:42 34.04410 -75.81199 38786 ft 466 kts 30°
2026-04-25 13:43 34.09900 -75.77023 38818 ft 467 kts 30°
2026-04-25 13:43 34.15392 -75.72840 38853 ft 467 kts 30°
2026-04-25 13:44 34.20883 -75.68649 38938 ft 467 kts 30°
2026-04-25 13:44 34.26375 -75.64452 38938 ft 468 kts 30°
2026-04-25 13:45 34.31890 -75.60230 38938 ft 469 kts 30°
2026-04-25 13:45 34.37411 -75.55995 38938 ft 471 kts 30°
2026-04-25 13:46 34.42942 -75.51744 38937 ft 472 kts 30°
2026-04-25 13:46 34.48491 -75.47489 38930 ft 472 kts 30°
2026-04-25 13:47 34.54037 -75.43223 38929 ft 472 kts 30°
2026-04-25 13:47 34.59569 -75.38955 38930 ft 471 kts 30°
2026-04-25 13:48 34.65098 -75.34679 38932 ft 471 kts 30°
2026-04-25 13:48 34.70633 -75.30396 38925 ft 472 kts 30°
2026-04-25 13:49 34.76180 -75.26096 38926 ft 473 kts 30°
2026-04-25 13:49 34.81721 -75.21792 38925 ft 473 kts 30°
2026-04-25 13:50 34.87262 -75.17480 38923 ft 473 kts 29°
2026-04-25 13:50 34.92815 -75.13155 38919 ft 474 kts 30°
2026-04-25 13:51 34.98370 -75.08790 38917 ft 475 kts 30°
2026-04-25 13:51 35.03935 -75.04451 38920 ft 474 kts 29°
2026-04-25 13:52 35.09458 -75.00140 38924 ft 470 kts 29°
2026-04-25 13:52 35.14949 -74.95830 38921 ft 469 kts 30°
2026-04-25 13:53 35.20430 -74.91487 38917 ft 469 kts 29°
2026-04-25 13:53 35.25925 -74.87174 38919 ft 469 kts 29°
2026-04-25 13:54 35.31420 -74.82853 38921 ft 470 kts 28°
2026-04-25 13:54 35.36755 -74.78178 38919 ft 473 kts 33°
2026-04-25 13:55 35.41963 -74.73231 38924 ft 473 kts 34°
2026-04-25 13:55 35.47185 -74.68313 38922 ft 473 kts 33°
2026-04-25 13:56 35.52434 -74.63444 38925 ft 473 kts 33°
2026-04-25 13:56 35.57694 -74.58588 38919 ft 473 kts 33°
2026-04-25 13:57 35.62960 -74.53729 38919 ft 474 kts 32°
2026-04-25 13:57 35.68220 -74.48850 38920 ft 474 kts 33°
2026-04-25 13:58 35.73477 -74.43958 38927 ft 474 kts 32°
2026-04-25 13:58 35.78752 -74.39071 38916 ft 475 kts 32°
2026-04-25 13:59 35.84001 -74.34184 38919 ft 476 kts 33°
2026-04-25 13:59 35.89267 -74.29250 38916 ft 475 kts 33°
2026-04-25 14:00 35.94528 -74.24320 38928 ft 474 kts 33°
2026-04-25 14:00 35.99787 -74.19394 38910 ft 476 kts 32°
2026-04-25 14:01 36.05063 -74.14447 38915 ft 477 kts 33°
2026-04-25 14:01 36.10351 -74.09478 38928 ft 477 kts 33°
2026-04-25 14:02 36.15635 -74.04503 38930 ft 477 kts 33°
2026-04-25 14:02 36.20923 -73.99515 38924 ft 479 kts 32°
2026-04-25 14:03 36.26215 -73.94494 38933 ft 479 kts 32°
2026-04-25 14:03 36.31526 -73.89502 38940 ft 479 kts 32°
2026-04-25 14:04 36.36832 -73.84497 38949 ft 479 kts 32°
2026-04-25 14:04 36.42130 -73.79472 38940 ft 479 kts 32°
2026-04-25 14:05 36.47423 -73.74436 38948 ft 479 kts 32°
2026-04-25 14:05 36.52711 -73.69395 38950 ft 479 kts 32°
2026-04-25 14:06 36.58000 -73.64345 38984 ft 479 kts 32°
2026-04-25 14:06 36.63280 -73.59294 38959 ft 478 kts 32°
2026-04-25 14:07 36.68544 -73.54251 38961 ft 477 kts 32°
2026-04-25 14:07 36.73811 -73.49198 38969 ft 478 kts 32°
2026-04-25 14:08 36.79072 -73.44140 38980 ft 478 kts 32°
2026-04-25 14:08 36.84335 -73.39071 38969 ft 478 kts 32°
2026-04-25 14:09 36.89598 -73.33993 38979 ft 478 kts 32°
2026-04-25 14:09 36.94858 -73.28909 38982 ft 478 kts 32°
2026-04-25 14:10 37.00108 -73.23825 38994 ft 477 kts 32°
2026-04-25 14:10 37.05356 -73.18734 38991 ft 477 kts 32°
2026-04-25 14:11 37.10599 -73.13639 38989 ft 477 kts 32°
2026-04-25 14:11 37.15840 -73.08537 39000 ft 477 kts 32°
2026-04-25 14:12 37.21084 -73.03422 39001 ft 477 kts 32°
2026-04-25 14:12 37.26324 -72.98302 38999 ft 477 kts 32°
2026-04-25 14:13 37.31563 -72.93174 39006 ft 477 kts 32°
2026-04-25 14:13 37.36787 -72.88050 39002 ft 476 kts 32°
2026-04-25 14:14 37.41998 -72.82929 39019 ft 475 kts 32°
2026-04-25 14:14 37.47210 -72.77801 39014 ft 476 kts 32°
2026-04-25 14:15 37.52420 -72.72664 39020 ft 476 kts 32°
2026-04-25 14:15 37.57638 -72.67510 39023 ft 476 kts 32°
2026-04-25 14:16 37.62842 -72.62350 39031 ft 476 kts 32°
2026-04-25 14:16 37.68048 -72.57182 39034 ft 475 kts 32°
2026-04-25 14:17 37.73233 -72.52031 39040 ft 474 kts 32°
2026-04-25 14:17 37.78416 -72.46876 39040 ft 474 kts 32°
2026-04-25 14:18 37.83556 -72.41752 39046 ft 474 kts 32°
2026-04-25 14:18 37.88531 -72.36221 39054 ft 481 kts 40°
2026-04-25 14:19 37.93085 -72.29982 39053 ft 483 kts 41°
2026-04-25 14:19 37.97570 -72.23617 39059 ft 484 kts 42°
2026-04-25 14:20 38.02030 -72.17252 39060 ft 482 kts 44°
2026-04-25 14:20 38.06480 -72.10896 39064 ft 481 kts 41°
2026-04-25 14:21 38.10946 -72.04561 39066 ft 481 kts 41°
2026-04-25 14:21 38.15408 -71.98214 39038 ft 482 kts 41°
2026-04-25 14:22 38.19867 -71.91847 39073 ft 482 kts 41°
2026-04-25 14:22 38.24323 -71.85466 39078 ft 482 kts 41°
2026-04-25 14:23 38.28012 -71.80171 39080 ft 481 kts 41°
2026-04-25 14:23 38.32446 -71.73800 39086 ft 481 kts 41°
2026-04-25 14:24 38.36883 -71.67413 39082 ft 481 kts 41°
2026-04-25 14:24 38.41322 -71.61009 39083 ft 482 kts 41°
2026-04-25 14:25 38.45763 -71.54589 39099 ft 483 kts 41°
2026-04-25 14:25 38.50195 -71.48165 39089 ft 482 kts 41°
2026-04-25 14:26 38.54619 -71.41744 39098 ft 482 kts 41°
2026-04-25 14:26 38.59046 -71.35305 39091 ft 482 kts 41°
2026-04-25 14:27 38.63473 -71.28854 39094 ft 483 kts 41°
2026-04-25 14:27 38.67898 -71.22391 39099 ft 483 kts 41°
2026-04-25 14:28 38.72323 -71.15915 39106 ft 483 kts 41°
2026-04-25 14:28 38.76748 -71.09427 39105 ft 483 kts 41°
2026-04-25 14:29 38.81169 -71.02931 39105 ft 484 kts 41°
2026-04-25 14:29 38.85588 -70.96424 39110 ft 484 kts 41°
2026-04-25 14:30 38.90009 -70.89901 39121 ft 484 kts 41°
2026-04-25 14:30 38.96621 -70.80116 39108 ft 483 kts 41°
2026-04-25 14:31 39.01020 -70.73592 39126 ft 483 kts 41°
2026-04-25 14:31 39.05419 -70.67055 39112 ft 483 kts 41°
2026-04-25 14:32 39.09816 -70.60508 39129 ft 483 kts 41°
2026-04-25 14:32 39.14205 -70.53956 39134 ft 483 kts 41°
2026-04-25 14:33 39.18596 -70.47388 39120 ft 483 kts 41°
2026-04-25 14:33 39.22979 -70.40821 39147 ft 483 kts 41°
2026-04-25 14:34 39.27356 -70.34246 39122 ft 483 kts 41°
2026-04-25 14:34 39.31725 -70.27672 39127 ft 482 kts 41°
2026-04-25 14:35 39.36091 -70.21088 39124 ft 482 kts 41°
2026-04-25 14:35 39.40454 -70.14496 39154 ft 484 kts 40°
2026-04-25 14:36 39.41197 -70.13372 39141 ft 484 kts 40°
2026-04-25 14:36 39.44125 -70.08941 39128 ft 486 kts 40°
2026-04-25 14:37 39.48450 -70.02179 39127 ft 493 kts 46°
2026-04-25 14:37 39.50257 -69.98352 39127 ft 504 kts 55°
2026-04-25 14:37 39.51691 -69.94177 39128 ft 509 kts 60°
2026-04-25 14:38 39.54240 -69.85576 39148 ft 513 kts 62°
2026-04-25 14:38 39.56679 -69.76859 39124 ft 516 kts 62°
2026-04-25 14:39 39.59049 -69.68405 39125 ft 518 kts 62°
2026-04-25 14:39 39.61530 -69.59620 39124 ft 520 kts 62°
2026-04-25 14:40 39.64022 -69.50804 39146 ft 522 kts 62°
2026-04-25 14:40 39.66502 -69.42007 39127 ft 524 kts 62°
2026-04-25 14:41 39.69015 -69.33059 39136 ft 524 kts 62°
2026-04-25 14:41 39.71484 -69.24226 39125 ft 523 kts 62°
2026-04-25 14:42 39.73557 -69.16790 39140 ft 523 kts 62°
2026-04-25 14:42 39.76435 -69.06437 39117 ft 524 kts 62°
2026-04-25 14:43 39.78905 -68.97517 39128 ft 525 kts 62°
2026-04-25 14:43 39.81371 -68.88580 39137 ft 525 kts 62°
2026-04-25 14:44 39.83824 -68.79652 39116 ft 523 kts 62°
2026-04-25 14:44 39.86266 -68.70741 39114 ft 523 kts 62°
2026-04-25 14:45 39.88703 -68.61820 39113 ft 523 kts 62°
2026-04-25 14:45 39.91132 -68.52891 39116 ft 523 kts 62°
2026-04-25 14:46 39.93556 -68.43953 39140 ft 524 kts 63°
2026-04-25 14:46 39.95971 -68.35007 39105 ft 522 kts 63°
2026-04-25 14:47 39.97981 -68.27540 39109 ft 521 kts 63°
2026-04-25 14:47 40.00273 -68.16911 39117 ft 532 kts 74°
2026-04-25 14:48 40.01368 -68.07331 39101 ft 535 kts 76°
2026-04-25 14:48 40.02317 -67.97704 39101 ft 536 kts 76°
2026-04-25 14:49 40.03252 -67.88060 39124 ft 536 kts 76°
2026-04-25 14:49 40.04193 -67.78452 39095 ft 532 kts 76°
2026-04-25 14:50 40.05133 -67.68881 39103 ft 531 kts 76°
2026-04-25 14:50 40.06069 -67.59316 39100 ft 531 kts 76°
2026-04-25 14:51 40.06996 -67.49750 39096 ft 531 kts 76°
2026-04-25 14:51 40.07913 -67.40178 39097 ft 531 kts 77°
2026-04-25 14:52 40.08821 -67.30611 39094 ft 531 kts 77°
2026-04-25 14:52 40.09571 -67.22653 39087 ft 531 kts 77°
2026-04-25 14:53 40.10615 -67.11464 39086 ft 530 kts 77°
2026-04-25 14:53 40.11498 -67.01902 39078 ft 530 kts 77°
2026-04-25 14:54 40.11960 -66.97129 38920 ft 529 kts 75°
2026-04-25 14:54 40.12603 -66.92418 38698 ft 526 kts 71°
2026-04-25 14:54 40.13371 -66.87755 38449 ft 525 kts 70°
2026-04-25 14:54 40.14179 -66.83095 38180 ft 526 kts 70°
2026-04-25 14:55 40.15764 -66.73749 38070 ft 528 kts 71°
2026-04-25 14:55 40.17266 -66.64354 38070 ft 528 kts 71°
2026-04-25 14:56 40.18712 -66.54997 38088 ft 528 kts 71°
2026-04-25 14:56 40.20152 -66.45586 38068 ft 528 kts 72°
2026-04-25 14:57 40.21588 -66.36171 38059 ft 528 kts 72°
2026-04-25 14:57 40.23021 -66.26740 38055 ft 528 kts 72°
2026-04-25 14:58 40.24445 -66.17315 38056 ft 528 kts 72°
2026-04-25 14:58 40.25864 -66.07869 38052 ft 529 kts 72°
2026-04-25 14:59 40.27275 -65.98417 38048 ft 529 kts 72°
2026-04-25 14:59 40.28679 -65.88958 38052 ft 529 kts 72°
2026-04-25 15:00 40.30076 -65.79494 38046 ft 530 kts 72°
2026-04-25 15:00 40.31467 -65.70012 38034 ft 530 kts 72°
2026-04-25 15:01 40.32850 -65.60522 38049 ft 530 kts 73°
2026-04-25 15:01 40.34227 -65.51024 38054 ft 531 kts 73°
2026-04-25 15:02 40.35591 -65.41550 38029 ft 528 kts 73°
2026-04-25 15:02 40.36943 -65.32098 38021 ft 527 kts 73°
2026-04-25 15:03 40.38280 -65.22715 38018 ft 527 kts 73°
2026-04-25 15:03 40.39617 -65.13265 38018 ft 527 kts 74°
2026-04-25 15:04 40.40947 -65.03807 38015 ft 527 kts 74°
2026-04-25 15:04 40.42269 -64.94341 38030 ft 527 kts 74°
2026-04-25 15:05 40.43576 -64.84922 38004 ft 524 kts 74°
2026-04-25 15:06 40.45520 -64.70814 38004 ft 523 kts 74°
2026-04-25 15:06 40.46806 -64.61413 38001 ft 523 kts 74°
2026-04-25 15:07 40.48085 -64.51997 37998 ft 523 kts 74°
2026-04-25 15:07 40.49357 -64.42576 37993 ft 523 kts 74°
2026-04-25 15:08 40.50617 -64.33170 37992 ft 522 kts 75°
2026-04-25 15:08 40.51869 -64.23771 37989 ft 522 kts 75°
2026-04-25 15:09 40.53115 -64.14360 37982 ft 523 kts 75°
2026-04-25 15:09 40.54961 -64.00299 37971 ft 523 kts 75°
2026-04-25 15:10 40.56189 -63.90866 37967 ft 524 kts 75°
2026-04-25 15:11 40.57818 -63.78256 37964 ft 521 kts 76°
2026-04-25 15:11 40.59021 -63.68868 37962 ft 521 kts 76°
2026-04-25 15:12 40.60815 -63.54768 37951 ft 521 kts 76°
2026-04-25 15:12 40.61800 -63.46957 37943 ft 521 kts 76°
2026-04-25 15:13 40.63757 -63.31316 37934 ft 521 kts 76°
2026-04-25 15:14 40.64921 -63.21916 37929 ft 520 kts 76°
2026-04-25 15:14 40.66077 -63.12525 37940 ft 519 kts 76°
2026-04-25 15:15 40.67227 -63.03122 37921 ft 520 kts 76°
2026-04-25 15:15 40.68371 -62.93702 37909 ft 521 kts 77°
2026-04-25 15:16 40.69506 -62.84281 37910 ft 521 kts 77°
2026-04-25 15:16 40.71195 -62.70147 37903 ft 520 kts 77°
2026-04-25 15:17 40.72865 -62.56011 37897 ft 520 kts 77°
2026-04-25 15:18 40.73969 -62.46587 37894 ft 521 kts 77°
2026-04-25 15:18 40.75613 -62.32420 37885 ft 521 kts 77°
2026-04-25 15:19 40.76516 -62.24567 37882 ft 520 kts 77°
2026-04-25 15:19 40.77775 -62.13547 37878 ft 520 kts 78°
2026-04-25 15:20 40.78844 -62.04110 37866 ft 520 kts 78°
2026-04-25 15:20 40.79906 -61.94663 37872 ft 520 kts 78°
2026-04-25 15:21 40.80961 -61.85212 37870 ft 521 kts 78°
2026-04-25 15:21 40.82008 -61.75751 37871 ft 521 kts 78°
2026-04-25 15:22 40.83046 -61.66304 37865 ft 519 kts 78°
2026-04-25 15:22 40.84074 -61.56866 37862 ft 519 kts 78°
2026-04-25 15:23 40.85097 -61.47419 37862 ft 519 kts 78°
2026-04-25 15:23 40.86103 -61.38039 37859 ft 519 kts 78°
2026-04-25 15:24 40.87110 -61.28587 37871 ft 520 kts 79°
2026-04-25 15:24 40.87948 -61.20662 37848 ft 519 kts 79°
2026-04-25 15:25 40.89098 -61.09688 37845 ft 519 kts 79°
2026-04-25 15:25 40.90080 -61.00240 37846 ft 519 kts 79°
2026-04-25 15:26 40.91056 -60.90780 37838 ft 520 kts 79°
2026-04-25 15:26 40.92024 -60.81307 37834 ft 520 kts 79°
2026-04-25 15:27 40.92985 -60.71834 37831 ft 520 kts 79°
2026-04-25 15:28 40.94413 -60.57605 37823 ft 521 kts 79°
2026-04-25 15:28 40.95356 -60.48103 37817 ft 521 kts 79°
2026-04-25 15:29 40.96291 -60.38600 37814 ft 522 kts 80°
2026-04-25 15:29 40.97222 -60.29066 37828 ft 523 kts 80°
2026-04-25 15:30 40.98143 -60.19544 37812 ft 521 kts 80°
2026-04-25 15:30 40.99054 -60.10038 37820 ft 520 kts 80°
2026-04-25 15:31 40.99958 -60.00525 37810 ft 522 kts 80°
2026-04-25 15:31 41.01101 -59.91053 37810 ft 520 kts 76°
2026-04-25 15:32 41.02554 -59.81671 37802 ft 520 kts 75°
2026-04-25 15:32 41.03984 -59.72287 37798 ft 520 kts 76°
2026-04-25 15:33 41.06017 -59.58170 37794 ft 521 kts 77°
2026-04-25 15:33 41.07345 -59.48732 37787 ft 521 kts 77°
2026-04-25 15:34 41.08657 -59.39350 37788 ft 521 kts 77°
2026-04-25 15:34 41.09759 -59.31440 37782 ft 521 kts 77°
2026-04-25 15:35 41.11930 -59.15737 37770 ft 521 kts 77°
2026-04-25 15:36 41.13876 -59.01536 37771 ft 522 kts 77°
2026-04-25 15:36 41.15166 -58.92037 37780 ft 523 kts 77°
2026-04-25 15:37 41.16446 -58.82554 37753 ft 523 kts 77°
2026-04-25 15:37 41.17719 -58.73057 37755 ft 523 kts 77°
2026-04-25 15:38 41.18987 -58.63543 37747 ft 524 kts 78°
2026-04-25 15:38 41.20247 -58.54016 37747 ft 524 kts 78°
2026-04-25 15:39 41.21501 -58.44480 37746 ft 524 kts 78°
2026-04-25 15:39 41.22747 -58.34943 37741 ft 524 kts 78°
2026-04-25 15:40 41.23567 -58.28626 37735 ft 524 kts 78°
2026-04-25 15:40 41.25216 -58.15844 37736 ft 526 kts 78°
2026-04-25 15:41 41.26443 -58.06259 37729 ft 526 kts 78°
2026-04-25 15:41 41.27661 -57.96675 37730 ft 526 kts 78°
2026-04-25 15:42 41.28871 -57.87087 37724 ft 526 kts 78°
2026-04-25 15:42 41.30072 -57.77506 37724 ft 526 kts 78°
2026-04-25 15:43 41.31259 -57.67968 37719 ft 526 kts 78°
2026-04-25 15:43 41.32445 -57.58371 37720 ft 526 kts 79°
2026-04-25 15:44 41.33623 -57.48774 37712 ft 526 kts 79°
2026-04-25 15:44 41.34794 -57.39160 37709 ft 526 kts 79°
2026-04-25 15:45 41.35957 -57.29553 37702 ft 526 kts 79°
2026-04-25 15:45 41.36731 -57.23111 37703 ft 527 kts 79°
2026-04-25 15:46 41.38264 -57.10268 37704 ft 528 kts 79°
2026-04-25 15:46 41.39406 -57.00616 37689 ft 528 kts 79°
2026-04-25 15:47 41.40541 -56.90956 37688 ft 528 kts 79°
2026-04-25 15:47 41.41666 -56.81303 37678 ft 528 kts 79°
2026-04-25 15:48 41.42787 -56.71617 37676 ft 530 kts 79°
2026-04-25 15:48 41.43902 -56.61907 37684 ft 529 kts 80°
2026-04-25 15:49 41.45007 -56.52205 37669 ft 529 kts 80°
2026-04-25 15:49 41.46103 -56.42516 37670 ft 529 kts 80°
2026-04-25 15:50 41.47193 -56.32799 37665 ft 530 kts 80°
2026-04-25 15:50 41.48269 -56.23133 37649 ft 531 kts 80°
2026-04-25 15:51 41.48990 -56.16613 37663 ft 532 kts 80°
2026-04-25 15:51 41.50415 -56.03626 37638 ft 531 kts 80°
2026-04-25 15:52 41.51475 -55.93866 37643 ft 531 kts 81°
2026-04-25 15:52 41.52527 -55.84111 37634 ft 532 kts 81°
2026-04-25 15:53 41.53573 -55.74324 37639 ft 533 kts 81°
2026-04-25 15:53 41.54612 -55.64526 37639 ft 532 kts 81°
2026-04-25 15:54 41.55640 -55.54744 37623 ft 532 kts 81°
2026-04-25 15:54 41.56661 -55.44950 37625 ft 532 kts 81°
2026-04-25 15:55 41.57674 -55.35163 37636 ft 533 kts 81°
2026-04-25 15:55 41.58682 -55.25324 37624 ft 535 kts 81°
2026-04-25 15:56 41.59682 -55.15485 37611 ft 535 kts 81°
2026-04-25 15:56 41.60675 -55.05629 37611 ft 535 kts 81°
2026-04-25 15:57 41.61659 -54.95778 37608 ft 535 kts 82°
2026-04-25 15:57 41.62634 -54.85924 37606 ft 536 kts 82°
2026-04-25 15:58 41.63441 -54.77704 37606 ft 536 kts 82°
2026-04-25 15:58 41.64565 -54.66147 37598 ft 536 kts 82°
2026-04-25 15:59 41.65356 -54.57936 37597 ft 536 kts 82°
2026-04-25 15:59 41.66301 -54.48044 37602 ft 536 kts 82°
2026-04-25 16:00 41.67080 -54.39823 37588 ft 537 kts 82°
2026-04-25 16:00 41.68319 -54.26617 37594 ft 538 kts 82°
2026-04-25 16:01 41.69092 -54.18298 37592 ft 537 kts 82°
2026-04-25 16:01 41.70006 -54.08363 37589 ft 537 kts 82°
2026-04-25 16:02 41.70905 -53.98502 37586 ft 537 kts 82°
2026-04-25 16:02 41.71802 -53.88564 37586 ft 539 kts 83°
2026-04-25 16:03 41.72692 -53.78601 37584 ft 540 kts 83°
2026-04-25 16:03 41.73575 -53.68628 37581 ft 540 kts 83°
2026-04-25 16:04 41.74450 -53.58640 37578 ft 540 kts 83°
2026-04-25 16:04 41.75315 -53.48661 37575 ft 540 kts 83°
2026-04-25 16:05 41.76172 -53.38673 37577 ft 540 kts 83°
2026-04-25 16:06 41.77441 -53.23691 37575 ft 540 kts 83°
2026-04-25 16:06 41.78277 -53.13695 37573 ft 540 kts 83°
2026-04-25 16:07 41.79104 -53.03688 37573 ft 540 kts 83°
2026-04-25 16:07 41.79923 -52.93680 37572 ft 540 kts 84°
2026-04-25 16:08 41.80731 -52.83694 37568 ft 540 kts 84°
2026-04-25 16:08 41.81531 -52.73696 37566 ft 540 kts 84°
2026-04-25 16:09 41.82324 -52.63677 37563 ft 540 kts 84°
2026-04-25 16:09 41.83108 -52.53671 37563 ft 540 kts 84°
2026-04-25 16:10 41.83877 -52.43736 37561 ft 540 kts 84°
2026-04-25 16:10 41.84644 -52.33709 37559 ft 541 kts 84°
2026-04-25 16:11 41.85403 -52.23665 37556 ft 541 kts 84°
2026-04-25 16:11 41.86153 -52.13625 37556 ft 541 kts 84°
2026-04-25 16:12 41.86894 -52.03589 37564 ft 541 kts 84°
2026-04-25 16:12 41.87628 -51.93540 37560 ft 541 kts 85°
2026-04-25 16:13 41.88353 -51.83477 37557 ft 542 kts 85°
2026-04-25 16:13 41.89070 -51.73390 37557 ft 542 kts 85°
2026-04-25 16:14 41.89778 -51.63320 37552 ft 542 kts 85°
2026-04-25 16:14 41.90477 -51.53249 37553 ft 542 kts 85°
2026-04-25 16:15 41.91169 -51.43153 37554 ft 544 kts 85°
2026-04-25 16:15 41.91848 -51.33108 37553 ft 544 kts 86°
2026-04-25 16:16 41.92523 -51.22978 37554 ft 544 kts 86°
2026-04-25 16:16 41.93190 -51.12859 37565 ft 544 kts 86°
2026-04-25 16:17 41.93847 -51.02733 37533 ft 544 kts 86°
2026-04-25 16:17 41.94497 -50.92598 37554 ft 545 kts 86°
2026-04-25 16:18 41.95136 -50.82461 37554 ft 545 kts 86°
2026-04-25 16:18 41.95769 -50.72300 37549 ft 546 kts 86°
2026-04-25 16:19 41.96393 -50.62133 37556 ft 545 kts 86°
2026-04-25 16:19 41.97007 -50.51988 37536 ft 545 kts 87°
2026-04-25 16:20 41.97910 -50.36768 37544 ft 546 kts 87°
2026-04-25 16:21 41.98791 -50.21580 37550 ft 546 kts 87°
2026-04-25 16:21 41.99369 -50.11418 37560 ft 545 kts 88°
2026-04-25 16:22 41.99974 -50.01260 37547 ft 546 kts 84°
2026-04-25 16:22 42.00842 -49.94236 37552 ft 547 kts 81°
2026-04-25 16:23 42.02265 -49.84191 37557 ft 548 kts 80°
2026-04-25 16:23 42.03739 -49.74120 37560 ft 548 kts 81°
2026-04-25 16:24 42.05188 -49.64051 37550 ft 548 kts 81°
2026-04-25 16:24 42.06616 -49.53982 37556 ft 548 kts 81°
2026-04-25 16:25 42.08035 -49.43895 37529 ft 548 kts 81°
2026-04-25 16:25 42.09446 -49.33802 37561 ft 550 kts 81°
2026-04-25 16:26 42.10855 -49.23662 37554 ft 551 kts 81°
2026-04-25 16:26 42.12256 -49.13515 37557 ft 551 kts 82°
2026-04-25 16:27 42.13649 -49.03358 37557 ft 551 kts 82°
2026-04-25 16:27 42.15031 -48.93205 37564 ft 551 kts 82°
2026-04-25 16:28 42.16405 -48.83046 37546 ft 551 kts 82°
2026-04-25 16:28 42.17774 -48.72846 37564 ft 554 kts 82°
2026-04-25 16:29 42.19128 -48.62688 37562 ft 554 kts 82°
2026-04-25 16:29 42.20492 -48.52389 37561 ft 554 kts 82°
2026-04-25 16:30 42.21827 -48.42235 37565 ft 553 kts 83°
2026-04-25 16:30 42.23163 -48.32003 37565 ft 554 kts 83°
2026-04-25 16:31 42.24488 -48.21778 37529 ft 553 kts 83°
2026-04-25 16:31 42.25808 -48.11508 37564 ft 557 kts 83°
2026-04-25 16:32 42.27124 -48.01201 37564 ft 557 kts 83°
2026-04-25 16:32 42.28430 -47.90901 37561 ft 556 kts 83°
2026-04-25 16:33 42.29725 -47.80604 37561 ft 556 kts 83°
2026-04-25 16:33 42.31012 -47.70296 37567 ft 556 kts 83°
2026-04-25 16:34 42.32288 -47.59992 37567 ft 556 kts 84°
2026-04-25 16:34 42.33556 -47.49681 37570 ft 556 kts 84°
2026-04-25 16:35 42.34813 -47.39372 37570 ft 556 kts 84°
2026-04-25 16:35 42.36062 -47.29059 37570 ft 556 kts 84°
2026-04-25 16:36 42.37301 -47.18742 37573 ft 556 kts 84°
2026-04-25 16:36 42.38530 -47.08422 37573 ft 556 kts 84°
2026-04-25 16:37 42.39750 -46.98101 37573 ft 556 kts 84°
2026-04-25 16:37 42.40966 -46.87729 37575 ft 559 kts 84°
2026-04-25 16:38 42.42175 -46.77341 37581 ft 559 kts 84°
2026-04-25 16:38 42.43375 -46.66949 37578 ft 559 kts 84°
2026-04-25 16:39 42.44564 -46.56553 37582 ft 559 kts 85°
2026-04-25 16:39 42.45745 -46.46152 37580 ft 558 kts 85°
2026-04-25 16:40 42.46914 -46.35769 37579 ft 558 kts 85°
2026-04-25 16:40 42.48068 -46.25421 37585 ft 559 kts 85°
2026-04-25 16:41 42.49221 -46.15002 37587 ft 559 kts 85°
2026-04-25 16:41 42.50932 -45.99381 37586 ft 558 kts 85°
2026-04-25 16:42 42.52058 -45.88982 37592 ft 557 kts 85°
2026-04-25 16:42 42.53174 -45.78582 37550 ft 557 kts 86°
2026-04-25 16:43 42.54281 -45.68165 37592 ft 560 kts 86°
2026-04-25 16:43 42.55383 -45.57718 37592 ft 559 kts 86°
2026-04-25 16:44 42.56473 -45.47291 37595 ft 559 kts 86°
2026-04-25 16:44 42.57555 -45.36847 37596 ft 559 kts 86°
2026-04-25 16:45 42.58626 -45.26410 37593 ft 558 kts 86°
2026-04-25 16:45 42.59688 -45.15967 37575 ft 558 kts 86°
2026-04-25 16:46 42.60741 -45.05507 37606 ft 560 kts 86°
2026-04-25 16:46 42.61441 -44.98500 37599 ft 560 kts 86°
2026-04-25 16:47 42.62823 -44.84550 37598 ft 560 kts 86°
2026-04-25 16:47 42.63848 -44.74088 37604 ft 558 kts 86°
2026-04-25 16:48 42.64861 -44.63640 37603 ft 558 kts 86°
2026-04-25 16:48 42.65864 -44.53193 37585 ft 557 kts 87°
2026-04-25 16:49 42.66858 -44.42744 37617 ft 558 kts 87°
2026-04-25 16:49 42.67841 -44.32306 37600 ft 556 kts 87°
2026-04-25 16:50 42.68812 -44.21881 37616 ft 556 kts 87°
2026-04-25 16:50 42.69613 -44.13209 37616 ft 556 kts 87°
2026-04-25 16:51 42.70567 -44.02778 37617 ft 556 kts 88°
2026-04-25 16:51 42.71353 -43.94111 37629 ft 556 kts 88°
2026-04-25 16:52 42.72447 -43.81913 37618 ft 556 kts 88°
2026-04-25 16:52 42.73372 -43.71482 37619 ft 556 kts 88°
2026-04-25 16:53 42.74743 -43.55824 37622 ft 555 kts 88°
2026-04-25 16:54 42.75642 -43.45411 37619 ft 554 kts 88°
2026-04-25 16:54 42.76526 -43.35068 37619 ft 554 kts 88°
2026-04-25 16:55 42.77405 -43.24658 37616 ft 553 kts 88°
2026-04-25 16:55 42.78275 -43.14260 37620 ft 553 kts 88°
2026-04-25 16:56 42.79133 -43.03868 37623 ft 552 kts 88°
2026-04-25 16:56 42.79982 -42.93478 37631 ft 552 kts 88°
2026-04-25 16:57 42.80822 -42.83079 37628 ft 552 kts 88°
2026-04-25 16:57 42.81653 -42.72682 37621 ft 551 kts 88°
2026-04-25 16:58 42.82471 -42.62318 37626 ft 550 kts 88°
2026-04-25 16:58 42.83278 -42.51969 37628 ft 549 kts 88°
2026-04-25 16:59 42.84066 -42.41751 37628 ft 549 kts 89°
2026-04-25 16:59 42.84863 -42.31268 37626 ft 548 kts 89°
2026-04-25 17:00 42.85641 -42.20952 37632 ft 546 kts 89°
2026-04-25 17:00 42.86408 -42.10649 37632 ft 546 kts 89°
2026-04-25 17:01 42.87164 -42.00351 37617 ft 546 kts 89°
2026-04-25 17:01 42.87910 -41.90070 37636 ft 544 kts 89°
2026-04-25 17:02 42.88643 -41.79828 37636 ft 543 kts 89°
2026-04-25 17:02 42.89367 -41.69582 37634 ft 543 kts 89°
2026-04-25 17:03 42.90081 -41.59343 37636 ft 542 kts 89°
2026-04-25 17:03 42.90787 -41.49099 37639 ft 542 kts 89°
2026-04-25 17:04 42.91478 -41.38940 37645 ft 541 kts 89°
2026-04-25 17:04 42.92164 -41.28714 37650 ft 541 kts 89°
2026-04-25 17:05 42.92840 -41.18485 37648 ft 541 kts 90°
2026-04-25 17:05 42.93838 -41.03149 37653 ft 540 kts 90°
2026-04-25 17:06 42.94491 -40.92943 37662 ft 540 kts 90°
2026-04-25 17:06 42.95134 -40.82735 37657 ft 540 kts 90°
2026-04-25 17:07 42.95768 -40.72521 37658 ft 540 kts 90°
2026-04-25 17:07 42.96393 -40.62316 37657 ft 538 kts 90°
2026-04-25 17:08 42.97007 -40.52151 37666 ft 537 kts 90°
2026-04-25 17:08 42.97611 -40.41982 37664 ft 537 kts 90°
2026-04-25 17:09 42.98205 -40.31820 37663 ft 537 kts 90°
2026-04-25 17:09 42.98791 -40.21650 37673 ft 536 kts 90°
2026-04-25 17:10 42.99367 -40.11517 37647 ft 534 kts 90°
2026-04-25 17:10 42.99931 -40.01401 37680 ft 534 kts 90°
2026-04-25 17:11 43.00437 -39.91291 37673 ft 533 kts 91°
2026-04-25 17:11 43.00843 -39.81178 37677 ft 533 kts 91°
2026-04-25 17:12 43.01240 -39.71069 37667 ft 532 kts 91°
2026-04-25 17:12 43.01640 -39.61036 37675 ft 532 kts 91°
2026-04-25 17:13 43.01909 -39.54286 37675 ft 532 kts 91°
2026-04-25 17:13 43.02436 -39.40834 37680 ft 532 kts 91°
2026-04-25 17:14 43.02821 -39.30729 37684 ft 533 kts 91°
2026-04-25 17:14 43.03196 -39.20618 37697 ft 533 kts 91°
2026-04-25 17:15 43.03563 -39.10504 37701 ft 533 kts 91°
2026-04-25 17:15 43.03920 -39.00398 37706 ft 533 kts 91°
2026-04-25 17:16 43.04269 -38.90287 37714 ft 533 kts 91°
2026-04-25 17:16 43.04609 -38.80165 37708 ft 533 kts 91°
2026-04-25 17:17 43.04940 -38.70031 37713 ft 533 kts 91°
2026-04-25 17:17 43.05262 -38.59903 37713 ft 533 kts 91°
2026-04-25 17:18 43.05576 -38.49768 37728 ft 533 kts 92°
2026-04-25 17:18 43.05880 -38.39636 37730 ft 533 kts 92°
2026-04-25 17:19 43.06176 -38.29499 37735 ft 533 kts 92°
2026-04-25 17:19 43.06463 -38.19362 37747 ft 534 kts 91°
2026-04-25 17:20 43.06738 -38.09294 37749 ft 533 kts 91°
2026-04-25 17:20 43.07007 -37.99162 37766 ft 533 kts 91°
2026-04-25 17:21 43.07266 -37.89043 37764 ft 532 kts 91°
2026-04-25 17:21 43.07516 -37.78929 37765 ft 532 kts 92°
2026-04-25 17:22 43.07719 -37.70454 37774 ft 532 kts 92°
2026-04-25 17:22 43.07990 -37.58701 37780 ft 531 kts 92°
2026-04-25 17:23 43.08213 -37.48632 37788 ft 529 kts 92°
2026-04-25 17:23 43.08426 -37.38579 37793 ft 529 kts 92°
2026-04-25 17:24 43.08630 -37.28528 37792 ft 529 kts 92°
2026-04-25 17:24 43.08826 -37.18471 37795 ft 529 kts 92°
2026-04-25 17:25 43.09013 -37.08424 37808 ft 528 kts 92°
2026-04-25 17:25 43.09191 -36.98382 37813 ft 528 kts 92°
2026-04-25 17:26 43.09359 -36.88352 37818 ft 527 kts 92°
2026-04-25 17:26 43.09519 -36.78323 37830 ft 527 kts 92°
2026-04-25 17:27 43.09670 -36.68289 37832 ft 528 kts 93°
2026-04-25 17:27 43.09765 -36.61632 37832 ft 528 kts 93°
2026-04-25 17:28 43.09946 -36.48250 37845 ft 528 kts 93°
2026-04-25 17:28 43.10071 -36.38200 37847 ft 528 kts 92°
2026-04-25 17:29 43.10187 -36.28130 37852 ft 530 kts 92°
2026-04-25 17:29 43.10295 -36.18041 37868 ft 530 kts 92°
2026-04-25 17:30 43.10395 -36.07965 37876 ft 530 kts 93°
2026-04-25 17:30 43.10486 -35.97883 37887 ft 530 kts 93°
2026-04-25 17:31 43.10567 -35.87800 37879 ft 530 kts 93°
2026-04-25 17:31 43.10640 -35.77729 37876 ft 529 kts 93°
2026-04-25 17:32 43.10703 -35.67661 37898 ft 530 kts 92°
2026-04-25 17:32 43.10758 -35.57571 37899 ft 530 kts 93°
2026-04-25 17:33 43.10804 -35.47486 37900 ft 530 kts 93°
2026-04-25 17:33 43.10841 -35.37388 37907 ft 531 kts 93°
2026-04-25 17:34 43.10870 -35.27277 37915 ft 531 kts 93°
2026-04-25 17:34 43.10890 -35.17168 37916 ft 531 kts 93°
2026-04-25 17:35 43.10900 -35.07127 37916 ft 531 kts 93°
2026-04-25 17:35 43.10901 -34.97023 37928 ft 532 kts 93°
2026-04-25 17:36 43.10894 -34.86825 37927 ft 532 kts 93°
2026-04-25 17:36 43.10879 -34.76692 37938 ft 532 kts 93°
2026-04-25 17:37 43.10854 -34.66631 37946 ft 532 kts 93°
2026-04-25 17:37 43.10820 -34.56506 37945 ft 532 kts 93°
2026-04-25 17:38 43.10793 -34.49733 37954 ft 532 kts 93°
2026-04-25 17:38 43.10726 -34.36267 37957 ft 532 kts 93°
2026-04-25 17:39 43.10666 -34.26150 37963 ft 532 kts 93°
2026-04-25 17:39 43.10596 -34.16026 37956 ft 532 kts 93°
2026-04-25 17:40 43.10517 -34.05901 37959 ft 532 kts 93°
2026-04-25 17:40 43.10430 -33.95780 37970 ft 532 kts 93°
2026-04-25 17:41 43.10350 -33.87371 37970 ft 532 kts 93°
2026-04-25 17:41 43.10241 -33.77247 37983 ft 532 kts 94°
2026-04-25 17:42 43.10132 -33.67514 37983 ft 532 kts 93°
2026-04-25 17:42 43.10018 -33.57777 37991 ft 532 kts 93°
2026-04-25 17:43 43.09890 -33.47664 37991 ft 532 kts 93°
2026-04-25 17:43 43.09752 -33.37547 37996 ft 532 kts 94°
2026-04-25 17:44 43.09604 -33.27430 37992 ft 532 kts 93°
2026-04-25 17:44 43.09448 -33.17306 38007 ft 532 kts 93°
2026-04-25 17:45 43.09312 -33.08887 38010 ft 532 kts 93°
2026-04-25 17:45 43.09110 -32.97056 38016 ft 532 kts 93°
2026-04-25 17:46 43.08926 -32.86935 38017 ft 532 kts 93°
2026-04-25 17:46 43.08733 -32.76808 38030 ft 532 kts 93°
2026-04-25 17:47 43.08534 -32.66764 38006 ft 532 kts 93°
2026-04-25 17:47 43.08324 -32.56650 38029 ft 532 kts 93°
2026-04-25 17:48 43.07992 -32.41466 38219 ft 533 kts 93°
2026-04-25 17:48 43.07877 -32.36407 38476 ft 530 kts 93°
2026-04-25 17:49 43.07760 -32.31379 38677 ft 529 kts 93°
2026-04-25 17:49 43.07641 -32.26344 38798 ft 529 kts 93°
2026-04-25 17:49 43.07520 -32.21314 38905 ft 529 kts 93°
2026-04-25 17:49 43.07397 -32.16294 39012 ft 529 kts 93°
2026-04-25 17:50 43.07272 -32.11262 39044 ft 529 kts 93°
2026-04-25 17:50 43.07013 -32.01206 39046 ft 529 kts 93°
2026-04-25 17:51 43.06747 -31.91171 39055 ft 526 kts 93°
2026-04-25 17:51 43.06475 -31.81187 39055 ft 525 kts 93°
2026-04-25 17:52 43.06194 -31.71227 39055 ft 524 kts 93°
2026-04-25 17:52 43.05904 -31.61260 39057 ft 524 kts 93°
2026-04-25 17:53 43.05605 -31.51301 39072 ft 524 kts 93°
2026-04-25 17:53 43.05299 -31.41387 39053 ft 521 kts 93°
2026-04-25 17:54 43.04987 -31.31527 39076 ft 518 kts 93°
2026-04-25 17:54 43.04666 -31.21687 39069 ft 518 kts 93°
2026-04-25 17:55 43.04340 -31.11924 39082 ft 518 kts 93°
2026-04-25 17:55 43.04004 -31.02116 39080 ft 515 kts 93°
2026-04-25 17:56 43.03661 -30.92345 39087 ft 514 kts 93°
2026-04-25 17:56 43.03300 -30.82592 39089 ft 514 kts 93°
2026-04-25 17:57 43.02940 -30.72833 39090 ft 514 kts 93°
2026-04-25 17:57 43.02580 -30.63096 39093 ft 512 kts 93°
2026-04-25 17:58 43.02209 -30.53380 39095 ft 511 kts 93°
2026-04-25 17:58 43.01828 -30.43680 39094 ft 511 kts 93°
2026-04-25 17:59 43.01437 -30.33980 39098 ft 511 kts 94°
2026-04-25 17:59 43.01039 -30.24292 39101 ft 511 kts 94°
2026-04-25 18:00 43.00631 -30.14585 39098 ft 511 kts 94°
2026-04-25 18:00 43.00217 -30.04890 39106 ft 511 kts 94°
2026-04-25 18:01 43.00224 -29.95189 39106 ft 511 kts 87°
2026-04-25 18:01 43.00597 -29.85497 39098 ft 511 kts 86°
2026-04-25 18:02 43.01019 -29.75817 39103 ft 509 kts 86°
2026-04-25 18:02 43.01429 -29.66171 39114 ft 509 kts 86°
2026-04-25 18:03 43.01822 -29.56511 39111 ft 509 kts 87°
2026-04-25 18:03 43.02202 -29.46858 39111 ft 509 kts 87°
2026-04-25 18:04 43.02573 -29.37216 39107 ft 508 kts 87°
2026-04-25 18:04 43.02928 -29.27584 39115 ft 507 kts 90°
2026-04-25 18:05 43.03144 -29.17962 39118 ft 507 kts 90°
2026-04-25 18:05 43.03488 -29.08319 39117 ft 507 kts 86°
2026-04-25 18:06 43.03928 -28.98696 39119 ft 508 kts 86°
2026-04-25 18:06 43.04306 -28.89126 39115 ft 508 kts 87°
2026-04-25 18:07 43.04636 -28.79485 39115 ft 508 kts 87°
2026-04-25 18:07 43.04948 -28.69839 39119 ft 508 kts 87°
2026-04-25 18:08 43.05252 -28.60189 39118 ft 508 kts 87°
2026-04-25 18:08 43.05550 -28.50531 39119 ft 509 kts 87°
2026-04-25 18:09 43.05841 -28.40874 39124 ft 509 kts 88°
2026-04-25 18:09 43.06125 -28.31196 39120 ft 509 kts 88°
2026-04-25 18:10 43.06400 -28.21526 39121 ft 509 kts 88°
2026-04-25 18:10 43.06667 -28.11840 39123 ft 510 kts 88°
2026-04-25 18:11 43.06926 -28.02148 39120 ft 510 kts 88°
2026-04-25 18:11 43.07177 -27.92459 39119 ft 510 kts 88°
2026-04-25 18:12 43.07420 -27.82773 39121 ft 510 kts 88°
2026-04-25 18:12 43.07655 -27.73059 39118 ft 511 kts 88°
2026-04-25 18:13 43.07882 -27.63336 39118 ft 512 kts 88°
2026-04-25 18:13 43.08102 -27.53592 39120 ft 512 kts 88°
2026-04-25 18:14 43.08415 -27.38988 39127 ft 513 kts 88°
2026-04-25 18:14 43.08614 -27.29235 39128 ft 513 kts 88°
2026-04-25 18:15 43.08805 -27.19485 39122 ft 513 kts 88°
2026-04-25 18:15 43.08987 -27.09731 39127 ft 513 kts 88°
2026-04-25 18:16 43.09160 -27.00041 39124 ft 513 kts 88°
2026-04-25 18:17 43.09406 -26.85404 39126 ft 513 kts 88°
2026-04-25 18:17 43.09559 -26.75658 39128 ft 512 kts 88°
2026-04-25 18:18 43.09704 -26.65923 39132 ft 512 kts 88°
2026-04-25 18:18 43.09840 -26.56194 39130 ft 511 kts 88°
2026-04-25 18:19 43.09968 -26.46473 39134 ft 511 kts 88°
2026-04-25 18:19 43.10088 -26.36756 39131 ft 511 kts 88°
2026-04-25 18:20 43.10200 -26.27039 39130 ft 511 kts 88°
2026-04-25 18:20 43.10303 -26.17318 39132 ft 511 kts 88°
2026-04-25 18:21 43.10399 -26.07589 39131 ft 511 kts 88°
2026-04-25 18:21 43.10485 -25.97874 39134 ft 510 kts 88°
2026-04-25 18:22 43.10564 -25.88176 39125 ft 509 kts 89°
2026-04-25 18:22 43.10634 -25.78497 39131 ft 508 kts 89°
2026-04-25 18:23 43.10696 -25.68837 39131 ft 508 kts 89°
2026-04-25 18:23 43.10750 -25.59177 39128 ft 508 kts 89°
2026-04-25 18:24 43.10796 -25.49518 39126 ft 508 kts 89°
2026-04-25 18:24 43.10834 -25.39864 39122 ft 507 kts 89°
2026-04-25 18:25 43.10863 -25.30213 39125 ft 507 kts 89°
2026-04-25 18:25 43.10884 -25.20563 39125 ft 507 kts 89°
2026-04-25 18:26 43.10898 -25.10926 39120 ft 506 kts 90°
2026-04-25 18:26 43.10903 -25.01283 39121 ft 507 kts 90°
2026-04-25 18:27 43.10900 -24.91641 39119 ft 507 kts 90°
2026-04-25 18:27 43.10888 -24.82002 39123 ft 507 kts 90°
2026-04-25 18:28 43.10869 -24.72358 39123 ft 507 kts 90°
2026-04-25 18:28 43.10842 -24.62712 39117 ft 507 kts 90°
2026-04-25 18:29 43.10793 -24.49867 39116 ft 507 kts 90°
2026-04-25 18:30 43.10693 -24.30568 39110 ft 507 kts 91°
2026-04-25 18:30 43.10631 -24.20924 39110 ft 507 kts 91°
2026-04-25 18:31 43.10560 -24.11275 39113 ft 507 kts 91°
2026-04-25 18:31 43.10481 -24.01620 39112 ft 507 kts 91°
2026-04-25 18:32 43.10395 -23.91973 39104 ft 507 kts 91°
2026-04-25 18:32 43.10300 -23.82319 39104 ft 508 kts 91°
2026-04-25 18:33 43.10197 -23.72663 39109 ft 508 kts 91°
2026-04-25 18:33 43.10086 -23.63006 39102 ft 508 kts 91°
2026-04-25 18:34 43.09967 -23.53408 39105 ft 508 kts 92°
2026-04-25 18:34 43.09840 -23.43747 39099 ft 509 kts 92°
2026-04-25 18:35 43.09704 -23.34065 39099 ft 509 kts 92°
2026-04-25 18:35 43.09560 -23.24384 39097 ft 509 kts 92°
2026-04-25 18:36 43.09408 -23.14709 39096 ft 509 kts 92°
2026-04-25 18:36 43.09247 -23.05018 39098 ft 510 kts 92°
2026-04-25 18:37 43.09078 -22.95305 39097 ft 511 kts 92°
2026-04-25 18:37 43.08901 -22.85588 39096 ft 511 kts 92°
2026-04-25 18:38 43.08715 -22.75872 39096 ft 511 kts 92°
2026-04-25 18:38 43.08521 -22.66147 39098 ft 512 kts 93°
2026-04-25 18:39 43.08319 -22.56404 39097 ft 513 kts 93°
2026-04-25 18:39 43.08108 -22.46662 39096 ft 513 kts 93°
2026-04-25 18:40 43.07888 -22.36913 39096 ft 513 kts 93°
2026-04-25 18:40 43.07661 -22.27169 39097 ft 513 kts 93°
2026-04-25 18:41 43.07425 -22.17420 39100 ft 513 kts 93°
2026-04-25 18:41 43.07181 -22.07684 39100 ft 512 kts 93°
2026-04-25 18:42 43.06972 -21.99585 39096 ft 512 kts 93°
2026-04-25 18:42 43.06668 -21.88205 39099 ft 513 kts 94°
2026-04-25 18:43 43.06399 -21.78438 39096 ft 514 kts 94°
2026-04-25 18:43 43.06121 -21.68680 39103 ft 514 kts 94°
2026-04-25 18:44 43.05836 -21.58967 39105 ft 514 kts 94°
2026-04-25 18:44 43.05542 -21.49193 39106 ft 515 kts 94°
2026-04-25 18:45 43.05238 -21.39400 39105 ft 516 kts 94°
2026-04-25 18:45 43.04926 -21.29599 39108 ft 516 kts 94°
2026-04-25 18:46 43.04605 -21.19795 39108 ft 516 kts 94°
2026-04-25 18:46 43.04276 -21.10006 39108 ft 517 kts 95°
2026-04-25 18:47 43.03937 -21.00167 39110 ft 518 kts 95°
2026-04-25 18:47 43.03591 -20.90346 39111 ft 518 kts 95°
2026-04-25 18:48 43.03235 -20.80508 39110 ft 518 kts 95°
2026-04-25 18:48 43.02872 -20.70683 39110 ft 518 kts 95°
2026-04-25 18:49 43.02499 -20.60837 39113 ft 519 kts 95°
2026-04-25 18:49 43.02117 -20.51000 39113 ft 519 kts 95°
2026-04-25 18:50 43.01728 -20.41148 39116 ft 519 kts 96°
2026-04-25 18:50 43.01332 -20.31369 39118 ft 520 kts 96°
2026-04-25 18:51 43.00991 -20.23110 39118 ft 520 kts 96°
2026-04-25 18:51 43.00509 -20.11652 39114 ft 520 kts 96°
2026-04-25 18:52 43.00143 -20.01772 39119 ft 523 kts 92°
2026-04-25 18:52 43.00811 -19.91855 39124 ft 526 kts 85°
2026-04-25 18:53 43.01799 -19.81948 39124 ft 526 kts 84°
2026-04-25 18:53 43.02826 -19.72045 39127 ft 527 kts 84°
2026-04-25 18:54 43.04329 -19.57140 39127 ft 528 kts 84°
2026-04-25 18:55 43.05308 -19.47190 39130 ft 528 kts 84°
2026-04-25 18:55 43.06108 -19.38982 39133 ft 528 kts 84°
2026-04-25 18:56 43.07071 -19.29017 39136 ft 529 kts 84°
2026-04-25 18:56 43.08027 -19.19044 39134 ft 529 kts 84°
2026-04-25 18:57 43.08974 -19.09064 39136 ft 529 kts 84°
2026-04-25 18:57 43.09912 -18.99097 39135 ft 528 kts 84°
2026-04-25 18:58 43.10840 -18.89133 39141 ft 528 kts 84°
2026-04-25 18:58 43.12216 -18.74188 39143 ft 528 kts 84°
2026-04-25 18:59 43.14020 -18.54243 39143 ft 528 kts 84°
2026-04-25 19:00 43.15350 -18.39282 39145 ft 527 kts 85°
2026-04-25 19:01 43.16657 -18.24355 39152 ft 525 kts 85°
2026-04-25 19:01 43.17516 -18.14417 39155 ft 525 kts 85°
2026-04-25 19:02 43.18774 -17.99675 39153 ft 524 kts 85°
2026-04-25 19:03 43.19750 -17.88071 39146 ft 524 kts 85°
2026-04-25 19:03 43.20849 -17.74848 39159 ft 524 kts 85°
2026-04-25 19:04 43.22067 -17.59964 39169 ft 524 kts 86°
2026-04-25 19:05 43.23660 -17.40105 39167 ft 524 kts 86°
2026-04-25 19:06 43.24443 -17.30182 39173 ft 523 kts 86°
2026-04-25 19:06 43.25602 -17.15288 39175 ft 523 kts 86°
2026-04-25 19:07 43.26741 -17.00401 39178 ft 523 kts 86°
2026-04-25 19:08 43.27860 -16.85512 39186 ft 523 kts 86°
2026-04-25 19:09 43.29078 -16.69002 39174 ft 523 kts 86°
2026-04-25 19:10 43.30396 -16.50747 39187 ft 523 kts 86°
2026-04-25 19:10 43.31102 -16.40804 39195 ft 523 kts 86°
2026-04-25 19:11 43.31798 -16.30869 39196 ft 523 kts 86°
2026-04-25 19:11 43.32486 -16.20933 39197 ft 522 kts 86°
2026-04-25 19:12 43.33164 -16.11005 39197 ft 522 kts 86°
2026-04-25 19:12 43.33834 -16.01079 39197 ft 522 kts 86°
2026-04-25 19:13 43.34494 -15.91142 39201 ft 522 kts 86°
2026-04-25 19:13 43.35147 -15.81211 39206 ft 522 kts 86°
2026-04-25 19:14 43.35791 -15.71276 39206 ft 522 kts 86°
2026-04-25 19:14 43.36426 -15.61341 39200 ft 522 kts 86°
2026-04-25 19:15 43.37051 -15.51422 39207 ft 521 kts 86°
2026-04-25 19:15 43.37668 -15.41511 39211 ft 520 kts 86°
2026-04-25 19:16 43.38275 -15.31599 39212 ft 520 kts 86°
2026-04-25 19:16 43.38870 -15.21749 39214 ft 520 kts 86°
2026-04-25 19:17 43.39461 -15.11837 39211 ft 520 kts 86°
2026-04-25 19:17 43.40043 -15.01917 39211 ft 520 kts 87°
2026-04-25 19:18 43.40616 -14.91995 39203 ft 520 kts 86°
2026-04-25 19:18 43.41085 -14.83770 39213 ft 518 kts 86°
2026-04-25 19:19 43.41640 -14.73900 39216 ft 518 kts 87°
2026-04-25 19:19 43.42187 -14.64017 39216 ft 518 kts 87°
2026-04-25 19:20 43.42724 -14.54146 39216 ft 518 kts 87°
2026-04-25 19:20 43.43253 -14.44281 39222 ft 517 kts 87°
2026-04-25 19:21 43.43772 -14.34423 39224 ft 517 kts 87°
2026-04-25 19:21 43.44536 -14.19632 39212 ft 516 kts 87°
2026-04-25 19:22 43.45033 -14.09787 39220 ft 515 kts 87°
2026-04-25 19:23 43.45763 -13.95048 39225 ft 515 kts 87°
2026-04-25 19:23 43.46474 -13.80292 39223 ft 514 kts 87°
2026-04-25 19:24 43.46936 -13.70474 39227 ft 514 kts 87°
2026-04-25 19:25 43.47836 -13.50842 39227 ft 514 kts 87°
2026-04-25 19:25 43.48273 -13.41022 39227 ft 513 kts 87°
2026-04-25 19:26 43.48700 -13.31230 39227 ft 512 kts 87°
2026-04-25 19:26 43.49119 -13.21436 39228 ft 512 kts 87°
2026-04-25 19:27 43.49461 -13.13300 39221 ft 512 kts 87°
2026-04-25 19:27 43.49919 -13.01944 39220 ft 510 kts 89°
2026-04-25 19:28 43.49814 -12.92203 39233 ft 509 kts 92°
2026-04-25 19:28 43.49557 -12.82470 39227 ft 508 kts 93°
2026-04-25 19:29 43.49271 -12.72759 39225 ft 507 kts 93°
2026-04-25 19:29 43.48984 -12.63095 39228 ft 504 kts 93°
2026-04-25 19:30 43.48695 -12.53456 39230 ft 504 kts 93°
2026-04-25 19:30 43.48401 -12.43822 39229 ft 504 kts 93°
2026-04-25 19:31 43.48099 -12.34190 39224 ft 503 kts 94°
2026-04-25 19:31 43.47788 -12.24563 39219 ft 503 kts 94°
2026-04-25 19:32 43.47470 -12.14952 39223 ft 503 kts 94°
2026-04-25 19:32 43.47199 -12.06955 39227 ft 503 kts 94°
2026-04-25 19:33 43.46809 -11.95714 39216 ft 503 kts 94°
2026-04-25 19:33 43.46466 -11.86095 39224 ft 503 kts 94°
2026-04-25 19:34 43.46115 -11.76483 39222 ft 503 kts 94°
2026-04-25 19:34 43.45756 -11.66859 39219 ft 503 kts 94°
2026-04-25 19:35 43.45389 -11.57248 39212 ft 503 kts 94°
2026-04-25 19:35 43.45014 -11.47645 39206 ft 503 kts 94°
2026-04-25 19:36 43.44631 -11.38038 39219 ft 502 kts 94°
2026-04-25 19:36 43.44240 -11.28436 39216 ft 502 kts 94°
2026-04-25 19:37 43.43842 -11.18836 39217 ft 503 kts 94°
2026-04-25 19:37 43.43435 -11.09237 39212 ft 503 kts 94°
2026-04-25 19:38 43.43020 -10.99632 39215 ft 503 kts 94°
2026-04-25 19:38 43.42597 -10.90031 39213 ft 503 kts 94°
2026-04-25 19:39 43.42165 -10.80432 39214 ft 503 kts 95°
2026-04-25 19:39 43.41729 -10.70890 39209 ft 503 kts 95°
2026-04-25 19:40 43.41279 -10.61226 39207 ft 503 kts 95°
2026-04-25 19:40 43.40827 -10.51696 39203 ft 502 kts 95°
2026-04-25 19:41 43.40361 -10.42051 39203 ft 501 kts 95°
2026-04-25 19:41 43.40051 -10.35715 39204 ft 501 kts 95°
2026-04-25 19:42 43.39416 -10.22985 39205 ft 501 kts 95°
2026-04-25 19:42 43.38931 -10.13425 39205 ft 501 kts 95°
2026-04-25 19:43 43.38437 -10.03871 39197 ft 502 kts 95°
2026-04-25 19:43 43.37935 -9.94306 39195 ft 502 kts 95°
2026-04-25 19:44 43.37426 -9.84748 39195 ft 501 kts 95°
2026-04-25 19:44 43.36908 -9.75185 39189 ft 502 kts 95°
2026-04-25 19:45 43.36381 -9.65617 39188 ft 502 kts 95°
2026-04-25 19:45 43.35863 -9.56332 39190 ft 502 kts 95°
2026-04-25 19:46 43.35321 -9.46762 39176 ft 502 kts 95°
2026-04-25 19:46 43.34771 -9.37213 39172 ft 501 kts 95°
2026-04-25 19:47 43.34214 -9.27669 39170 ft 501 kts 95°
2026-04-25 19:47 43.33650 -9.18129 39166 ft 500 kts 95°
2026-04-25 19:48 43.33077 -9.08595 39166 ft 501 kts 95°
2026-04-25 19:48 43.32497 -8.99081 39165 ft 499 kts 95°
2026-04-25 19:49 43.32111 -8.92799 39153 ft 498 kts 95°
2026-04-25 19:49 43.31319 -8.80115 39154 ft 498 kts 95°
2026-04-25 19:50 43.30414 -8.65899 39148 ft 497 kts 95°
2026-04-25 19:51 43.29806 -8.56481 39144 ft 494 kts 95°
2026-04-25 19:51 43.29196 -8.47160 39141 ft 494 kts 95°
2026-04-25 19:52 43.28574 -8.37778 39155 ft 494 kts 95°
2026-04-25 19:52 43.27943 -8.28389 39157 ft 494 kts 95°
2026-04-25 19:53 43.27304 -8.18990 39159 ft 495 kts 95°
2026-04-25 19:53 43.26657 -8.09594 39157 ft 495 kts 95°
2026-04-25 19:54 43.26003 -8.00200 39160 ft 495 kts 95°
2026-04-25 19:54 43.25341 -7.90796 39161 ft 495 kts 95°
2026-04-25 19:55 43.24675 -7.81404 39172 ft 495 kts 95°
2026-04-25 19:55 43.23995 -7.72004 39160 ft 495 kts 95°
2026-04-25 19:56 43.23308 -7.62614 39161 ft 495 kts 96°
2026-04-25 19:56 43.22614 -7.53220 39168 ft 496 kts 95°
2026-04-25 19:57 43.21912 -7.43820 39170 ft 496 kts 95°
2026-04-25 19:57 43.21202 -7.34417 39171 ft 496 kts 95°
2026-04-25 19:58 43.20194 -7.25066 39168 ft 496 kts 99°
2026-04-25 19:58 43.18980 -7.15773 39158 ft 494 kts 99°
2026-04-25 19:59 43.17805 -7.06573 39157 ft 493 kts 98°
2026-04-25 19:59 43.16665 -6.97326 39163 ft 493 kts 98°
2026-04-25 20:00 43.15532 -6.88069 39163 ft 493 kts 98°
2026-04-25 20:00 43.14392 -6.78823 39163 ft 492 kts 98°
2026-04-25 20:01 43.12669 -6.64979 39167 ft 491 kts 98°
2026-04-25 20:01 43.11510 -6.55763 39168 ft 491 kts 98°
2026-04-25 20:02 43.10345 -6.46555 39181 ft 491 kts 99°
2026-04-25 20:02 43.09172 -6.37348 39165 ft 492 kts 99°
2026-04-25 20:03 43.07991 -6.28135 39167 ft 492 kts 99°
2026-04-25 20:03 43.06801 -6.18917 39177 ft 492 kts 99°
2026-04-25 20:04 43.05605 -6.09704 39177 ft 492 kts 99°
2026-04-25 20:04 43.04400 -6.00499 39181 ft 492 kts 99°
2026-04-25 20:05 43.03189 -5.91297 39176 ft 491 kts 99°
2026-04-25 20:05 43.01972 -5.82107 39179 ft 491 kts 99°
2026-04-25 20:06 43.00955 -5.74476 39184 ft 491 kts 99°
2026-04-25 20:06 42.99724 -5.65292 39183 ft 491 kts 99°
2026-04-25 20:07 42.98485 -5.56117 39188 ft 491 kts 99°
2026-04-25 20:07 42.97239 -5.46941 39180 ft 491 kts 99°
2026-04-25 20:08 42.95987 -5.37768 39182 ft 491 kts 99°
2026-04-25 20:08 42.94728 -5.28597 39190 ft 492 kts 100°
2026-04-25 20:09 42.93459 -5.19431 39192 ft 492 kts 100°
2026-04-25 20:09 42.92182 -5.10261 39199 ft 492 kts 100°
2026-04-25 20:10 42.90899 -5.01099 39194 ft 492 kts 100°
2026-04-25 20:10 42.89610 -4.91948 39199 ft 491 kts 101°
2026-04-25 20:11 42.88314 -4.82812 39202 ft 491 kts 101°
2026-04-25 20:11 42.87011 -4.73669 39201 ft 491 kts 101°
2026-04-25 20:12 42.85700 -4.64533 39203 ft 491 kts 101°
2026-04-25 20:12 42.84606 -4.56947 39211 ft 491 kts 101°
2026-04-25 20:13 42.83058 -4.46276 39212 ft 491 kts 101°
2026-04-25 20:13 42.81726 -4.37153 39214 ft 491 kts 101°
2026-04-25 20:14 42.80385 -4.28024 39213 ft 491 kts 101°
2026-04-25 20:14 42.79038 -4.18906 39218 ft 491 kts 101°
2026-04-25 20:15 42.77683 -4.09787 39214 ft 491 kts 101°
2026-04-25 20:15 42.76320 -4.00674 39214 ft 491 kts 101°
2026-04-25 20:16 42.74952 -3.91570 39214 ft 491 kts 102°
2026-04-25 20:16 42.73575 -3.82462 39217 ft 491 kts 102°
2026-04-25 20:17 42.72195 -3.73383 39215 ft 491 kts 102°
2026-04-25 20:17 42.70805 -3.64292 39207 ft 490 kts 102°
2026-04-25 20:18 42.69416 -3.55258 39210 ft 490 kts 102°
2026-04-25 20:18 42.68008 -3.46149 39210 ft 490 kts 102°
2026-04-25 20:19 42.66597 -3.37078 39209 ft 491 kts 102°
2026-04-25 20:19 42.65178 -3.27998 39208 ft 492 kts 102°
2026-04-25 20:20 42.63749 -3.18907 39204 ft 492 kts 102°
2026-04-25 20:20 42.62314 -3.09828 39204 ft 492 kts 102°
2026-04-25 20:21 42.60871 -3.00751 39236 ft 492 kts 102°
2026-04-25 20:21 42.60146 -2.96208 39387 ft 491 kts 102°
2026-04-25 20:21 42.59423 -2.91685 39588 ft 490 kts 102°
2026-04-25 20:22 42.58698 -2.87171 39734 ft 489 kts 102°
2026-04-25 20:22 42.58219 -2.84187 39827 ft 489 kts 102°
2026-04-25 20:22 42.57245 -2.78150 39958 ft 490 kts 102°
2026-04-25 20:22 42.56515 -2.73636 40069 ft 490 kts 102°
2026-04-25 20:23 42.55783 -2.69121 40172 ft 490 kts 102°
2026-04-25 20:23 42.55051 -2.64615 40258 ft 491 kts 102°
2026-04-25 20:23 42.53573 -2.55561 40420 ft 491 kts 102°
2026-04-25 20:24 42.52090 -2.46524 40627 ft 491 kts 102°
2026-04-25 20:24 42.50609 -2.37546 40804 ft 491 kts 102°
2026-04-25 20:25 42.49111 -2.28512 40967 ft 492 kts 102°
2026-04-25 20:25 42.47603 -2.19459 41064 ft 493 kts 102°
2026-04-25 20:26 42.46084 -2.10393 41164 ft 495 kts 102°
2026-04-25 20:26 42.44549 -2.01278 41168 ft 498 kts 102°
2026-04-25 20:27 42.43000 -1.92132 41157 ft 498 kts 102°
2026-04-25 20:27 42.41625 -1.82964 41145 ft 497 kts 99°
2026-04-25 20:28 42.40558 -1.73737 41148 ft 496 kts 98°
2026-04-25 20:28 42.39486 -1.64513 41138 ft 496 kts 98°
2026-04-25 20:29 42.38354 -1.55312 41146 ft 495 kts 99°
2026-04-25 20:29 42.37192 -1.46145 41135 ft 493 kts 99°
2026-04-25 20:30 42.36025 -1.37032 41134 ft 492 kts 99°
2026-04-25 20:30 42.34853 -1.27923 41125 ft 491 kts 99°
2026-04-25 20:31 42.33677 -1.18822 41120 ft 491 kts 99°
2026-04-25 20:31 42.32496 -1.09734 41121 ft 490 kts 100°
2026-04-25 20:32 42.31313 -1.00696 41129 ft 488 kts 100°
2026-04-25 20:32 42.30125 -0.91686 41123 ft 487 kts 100°
2026-04-25 20:33 42.29529 -0.87181 40966 ft 486 kts 100°
2026-04-25 20:33 42.28942 -0.82766 40732 ft 483 kts 100°
2026-04-25 20:33 42.28347 -0.78298 40493 ft 483 kts 101°
2026-04-25 20:33 42.27945 -0.75285 40307 ft 482 kts 101°
2026-04-25 20:34 42.27157 -0.69400 40129 ft 480 kts 101°
2026-04-25 20:34 42.26561 -0.64963 40117 ft 480 kts 101°
2026-04-25 20:34 42.25364 -0.56109 40123 ft 480 kts 101°
2026-04-25 20:35 42.24161 -0.47253 40127 ft 480 kts 101°
2026-04-25 20:35 42.22950 -0.38396 40129 ft 480 kts 101°
2026-04-25 20:36 42.21733 -0.29553 40134 ft 480 kts 101°
2026-04-25 20:36 42.20890 -0.20627 40135 ft 480 kts 95°
2026-04-25 20:37 42.20469 -0.11642 40133 ft 481 kts 94°
2026-04-25 20:37 42.20105 -0.02638 40133 ft 481 kts 94°
2026-04-25 20:38 42.19736 0.06372 40117 ft 482 kts 94°
2026-04-25 20:38 42.19348 0.15402 40127 ft 482 kts 94°
2026-04-25 20:39 42.18949 0.24418 40128 ft 482 kts 94°
2026-04-25 20:39 42.18677 0.30459 40127 ft 482 kts 94°
2026-04-25 20:40 42.18128 0.42457 40134 ft 483 kts 94°
2026-04-25 20:40 42.17706 0.51501 40136 ft 483 kts 94°
2026-04-25 20:41 42.17277 0.60548 40139 ft 484 kts 94°
2026-04-25 20:41 42.16840 0.69592 40145 ft 484 kts 94°
2026-04-25 20:42 42.16397 0.78639 40152 ft 484 kts 94°
2026-04-25 20:42 42.15946 0.87706 40150 ft 486 kts 95°
2026-04-25 20:43 42.15485 0.96795 40148 ft 486 kts 95°
2026-04-25 20:43 42.15017 1.05889 40144 ft 486 kts 95°
2026-04-25 20:44 42.14543 1.14969 40149 ft 486 kts 95°
2026-04-25 20:44 42.14061 1.24081 40142 ft 488 kts 95°
2026-04-25 20:45 42.13570 1.33212 40141 ft 489 kts 95°
2026-04-25 20:45 42.12975 1.42331 40146 ft 489 kts 96°
2026-04-25 20:46 42.12295 1.51440 40150 ft 489 kts 96°
2026-04-25 20:46 42.11622 1.60487 40155 ft 488 kts 96°
2026-04-25 20:47 42.10952 1.69635 40156 ft 488 kts 96°
2026-04-25 20:47 42.10286 1.78722 40157 ft 488 kts 96°
2026-04-25 20:48 42.09613 1.87800 40152 ft 488 kts 96°
2026-04-25 20:48 42.08932 1.96889 40152 ft 488 kts 96°
2026-04-25 20:49 42.08242 2.05980 40143 ft 488 kts 96°
2026-04-25 20:49 42.07549 2.15016 40136 ft 488 kts 96°
2026-04-25 20:50 42.06840 2.24167 40135 ft 488 kts 96°
2026-04-25 20:50 42.06249 2.31728 40129 ft 489 kts 96°
2026-04-25 20:51 42.05532 2.40818 40122 ft 489 kts 96°
2026-04-25 20:51 42.04687 2.51394 40109 ft 489 kts 96°
2026-04-25 20:52 42.04197 2.57476 40109 ft 489 kts 96°
2026-04-25 20:52 42.03334 2.68106 40100 ft 489 kts 97°
2026-04-25 20:53 42.02587 2.77193 40101 ft 489 kts 97°
2026-04-25 20:53 42.01833 2.86278 40098 ft 489 kts 97°
2026-04-25 20:54 42.01072 2.95363 40097 ft 489 kts 97°
2026-04-25 20:54 42.00303 3.04448 40097 ft 489 kts 97°
2026-04-25 20:55 41.99534 3.13453 40096 ft 489 kts 97°
2026-04-25 20:55 41.98752 3.22522 40102 ft 489 kts 97°
2026-04-25 20:56 41.97962 3.31606 40102 ft 489 kts 97°
2026-04-25 20:56 41.97166 3.40666 40111 ft 489 kts 97°
2026-04-25 20:57 41.96363 3.49731 40110 ft 489 kts 97°
2026-04-25 20:57 41.95550 3.58816 40119 ft 489 kts 97°
2026-04-25 20:58 41.94732 3.67882 40119 ft 489 kts 97°
2026-04-25 20:58 41.93907 3.76940 40118 ft 489 kts 97°
2026-04-25 20:59 41.93088 3.85997 40123 ft 490 kts 96°
2026-04-25 20:59 41.93422 3.95108 40124 ft 490 kts 77°
2026-04-25 21:00 41.95288 4.02277 40126 ft 490 kts 64°
2026-04-25 21:01 42.00845 4.15600 40124 ft 490 kts 58°
2026-04-25 21:01 42.04382 4.23449 40120 ft 490 kts 58°
2026-04-25 21:02 42.07923 4.31285 40121 ft 489 kts 58°
2026-04-25 21:02 42.11446 4.39125 40123 ft 489 kts 58°
2026-04-25 21:03 42.14960 4.46982 40121 ft 490 kts 58°
2026-04-25 21:03 42.18476 4.54871 40120 ft 490 kts 58°
2026-04-25 21:04 42.21981 4.62755 40115 ft 490 kts 58°
2026-04-25 21:04 42.25476 4.70636 40118 ft 490 kts 58°
2026-04-25 21:05 42.28968 4.78527 40118 ft 489 kts 58°
2026-04-25 21:05 42.32453 4.86427 40117 ft 490 kts 58°
2026-04-25 21:06 42.35935 4.94343 40113 ft 490 kts 58°
2026-04-25 21:06 42.39409 5.02264 40112 ft 489 kts 58°
2026-04-25 21:07 42.42872 5.10179 40112 ft 488 kts 58°
2026-04-25 21:07 42.46328 5.18093 40113 ft 488 kts 58°
2026-04-25 21:08 42.49777 5.26018 40118 ft 488 kts 58°
2026-04-25 21:08 42.53221 5.33951 40115 ft 488 kts 58°
2026-04-25 21:09 42.58365 5.45843 40111 ft 486 kts 58°
2026-04-25 21:09 42.61780 5.53762 40111 ft 486 kts 58°
2026-04-25 21:10 42.65195 5.61702 40115 ft 486 kts 58°
2026-04-25 21:10 42.68602 5.69647 40116 ft 487 kts 59°
2026-04-25 21:11 42.71976 5.77542 40113 ft 486 kts 58°
2026-04-25 21:11 42.75365 5.85486 40113 ft 485 kts 58°
2026-04-25 21:12 42.78743 5.93423 40111 ft 485 kts 58°
2026-04-25 21:12 42.81576 6.00098 40111 ft 485 kts 59°
2026-04-25 21:13 42.85496 6.09359 40092 ft 485 kts 59°
2026-04-25 21:13 42.88862 6.17338 40089 ft 486 kts 59°
2026-04-25 21:14 42.92222 6.25324 40098 ft 486 kts 59°
2026-04-25 21:14 42.95581 6.33327 40095 ft 486 kts 58°
2026-04-25 21:15 42.98932 6.41336 40096 ft 486 kts 59°
2026-04-25 21:15 43.02277 6.49352 40093 ft 486 kts 59°
2026-04-25 21:16 43.05616 6.57375 40102 ft 485 kts 58°
2026-04-25 21:16 43.08952 6.65412 40093 ft 486 kts 58°
2026-04-25 21:17 43.12281 6.73457 40101 ft 486 kts 59°
2026-04-25 21:17 43.15604 6.81507 40096 ft 486 kts 59°
2026-04-25 21:18 43.18929 6.89580 40107 ft 486 kts 59°
2026-04-25 21:18 43.22245 6.97653 40109 ft 486 kts 59°
2026-04-25 21:19 43.25554 7.05746 40104 ft 486 kts 59°
2026-04-25 21:19 43.28856 7.13842 40103 ft 486 kts 59°
2026-04-25 21:20 43.31595 7.20572 40104 ft 486 kts 59°
2026-04-25 21:20 43.35444 7.30052 40106 ft 486 kts 59°
2026-04-25 21:21 43.38729 7.38170 40104 ft 486 kts 59°
2026-04-25 21:21 43.42012 7.46305 40103 ft 486 kts 59°
2026-04-25 21:22 43.45282 7.54432 40102 ft 485 kts 59°
2026-04-25 21:22 43.48547 7.62570 40103 ft 486 kts 59°
2026-04-25 21:23 43.51808 7.70720 40106 ft 486 kts 60°
2026-04-25 21:23 43.55064 7.78881 40109 ft 486 kts 60°
2026-04-25 21:24 43.58311 7.87045 40112 ft 486 kts 60°
2026-04-25 21:24 43.61559 7.95234 40116 ft 486 kts 60°
2026-04-25 21:25 43.64796 8.03416 40099 ft 486 kts 60°
2026-04-25 21:25 43.68140 8.11541 40122 ft 486 kts 54°
2026-04-25 21:26 43.72480 8.18625 40119 ft 483 kts 44°
2026-04-25 21:26 43.77219 8.25202 40106 ft 482 kts 43°
2026-04-25 21:27 43.82019 8.31682 40108 ft 482 kts 43°
2026-04-25 21:27 43.86805 8.38198 40109 ft 483 kts 43°
2026-04-25 21:28 43.91545 8.44716 40113 ft 483 kts 43°
2026-04-25 21:28 43.96311 8.51301 40113 ft 483 kts 43°
2026-04-25 21:29 44.01069 8.57894 40110 ft 483 kts 43°
2026-04-25 21:29 44.05822 8.64491 40113 ft 483 kts 43°
2026-04-25 21:30 44.10574 8.71103 40119 ft 483 kts 43°
2026-04-25 21:30 44.14523 8.76609 40111 ft 484 kts 43°
2026-04-25 21:31 44.20078 8.84373 40113 ft 484 kts 43°
2026-04-25 21:31 44.24823 8.91022 40113 ft 484 kts 43°
2026-04-25 21:32 44.29566 8.97686 40114 ft 484 kts 43°
2026-04-25 21:32 44.34309 9.04364 40104 ft 484 kts 46°
2026-04-25 21:33 44.38947 9.11174 40107 ft 485 kts 45°
2026-04-25 21:33 44.43647 9.17930 40103 ft 485 kts 45°
2026-04-25 21:34 44.48386 9.24665 40105 ft 485 kts 43°
2026-04-25 21:34 44.53182 9.31315 40105 ft 485 kts 42°
2026-04-25 21:35 44.57941 9.37932 40105 ft 485 kts 43°
2026-04-25 21:35 44.62687 9.44661 40103 ft 485 kts 43°
2026-04-25 21:36 44.67416 9.51434 40096 ft 486 kts 43°
2026-04-25 21:36 44.72147 9.58236 40084 ft 486 kts 43°
2026-04-25 21:37 44.75307 9.62787 40066 ft 486 kts 43°
2026-04-25 21:37 44.81596 9.71863 40066 ft 487 kts 43°
2026-04-25 21:38 44.86319 9.78697 40047 ft 487 kts 43°
2026-04-25 21:38 44.90269 9.84425 40034 ft 487 kts 43°
2026-04-25 21:39 44.94958 9.91241 40034 ft 487 kts 43°
2026-04-25 21:39 44.99666 9.98103 40018 ft 486 kts 43°
2026-04-25 21:40 45.04367 10.04970 40007 ft 486 kts 43°
2026-04-25 21:40 45.09067 10.11852 40007 ft 486 kts 44°
2026-04-25 21:41 45.13763 10.18750 40013 ft 486 kts 43°
2026-04-25 21:41 45.18425 10.25671 40001 ft 487 kts 46°
2026-04-25 21:42 45.22661 10.33185 40018 ft 488 kts 50°
2026-04-25 21:42 45.26711 10.40924 40020 ft 488 kts 51°
2026-04-25 21:43 45.30723 10.48701 40022 ft 488 kts 51°
2026-04-25 21:43 45.34744 10.56474 40017 ft 488 kts 51°
2026-04-25 21:44 45.38773 10.64251 40019 ft 489 kts 51°
2026-04-25 21:45 45.44819 10.75949 40021 ft 489 kts 51°
2026-04-25 21:45 45.48837 10.83750 40021 ft 489 kts 51°
2026-04-25 21:46 45.52852 10.91568 40019 ft 489 kts 51°
2026-04-25 21:46 45.56864 10.99403 40023 ft 489 kts 51°
2026-04-25 21:47 45.60871 11.07250 40026 ft 490 kts 51°
2026-04-25 21:47 45.64876 11.15124 40039 ft 490 kts 51°
2026-04-25 21:48 45.68874 11.23002 40034 ft 490 kts 51°
2026-04-25 21:48 45.72864 11.30907 40056 ft 490 kts 52°
2026-04-25 21:49 45.76837 11.38823 40089 ft 490 kts 52°
2026-04-25 21:49 45.80820 11.46748 40077 ft 490 kts 52°
2026-04-25 21:50 45.84799 11.54670 40097 ft 490 kts 52°
2026-04-25 21:50 45.88778 11.62613 40076 ft 490 kts 52°
2026-04-25 21:51 45.92748 11.70556 40067 ft 490 kts 52°
2026-04-25 21:51 45.96716 11.78503 40073 ft 489 kts 51°
2026-04-25 21:52 46.00692 11.86357 40056 ft 490 kts 52°
2026-04-25 21:52 46.04633 11.94352 40052 ft 490 kts 53°
2026-04-25 21:53 46.08561 12.02374 40042 ft 491 kts 52°
2026-04-25 21:53 46.12517 12.10405 40043 ft 491 kts 52°
2026-04-25 21:54 46.16469 12.18442 40046 ft 492 kts 52°
2026-04-25 21:54 46.20419 12.26500 40049 ft 492 kts 52°
2026-04-25 21:55 46.24357 12.34571 40052 ft 491 kts 52°
2026-04-25 21:55 46.28290 12.42652 40053 ft 492 kts 52°
2026-04-25 21:56 46.32217 12.50741 40059 ft 491 kts 52°
2026-04-25 21:56 46.36135 12.58845 40054 ft 492 kts 52°
2026-04-25 21:57 46.40059 12.66973 40056 ft 492 kts 52°
2026-04-25 21:57 46.43750 12.75326 40067 ft 495 kts 61°
2026-04-25 21:58 46.46631 12.84423 40068 ft 497 kts 63°
2026-04-25 21:58 46.49406 12.93593 40067 ft 496 kts 64°
2026-04-25 21:59 46.52170 13.02764 40073 ft 497 kts 63°
2026-04-25 21:59 46.54923 13.11974 40063 ft 497 kts 64°
2026-04-25 22:00 46.59042 13.25816 40071 ft 498 kts 64°
2026-04-25 22:00 46.61779 13.35058 40077 ft 497 kts 64°
2026-04-25 22:01 46.64504 13.44299 40067 ft 497 kts 64°
2026-04-25 22:01 46.66762 13.51979 40070 ft 496 kts 64°
2026-04-25 22:02 46.69930 13.62796 40071 ft 497 kts 64°
2026-04-25 22:02 46.72637 13.72072 40071 ft 497 kts 64°
2026-04-25 22:03 46.73970 13.76656 39940 ft 497 kts 64°
2026-04-25 22:03 46.75316 13.81289 39689 ft 497 kts 64°
2026-04-25 22:03 46.76661 13.85933 39458 ft 496 kts 64°
2026-04-25 22:03 46.78002 13.90566 39224 ft 496 kts 64°
2026-04-25 22:04 46.79343 13.95213 38999 ft 496 kts 64°
2026-04-25 22:04 46.80681 13.99855 38769 ft 496 kts 64°
2026-04-25 22:04 46.82018 14.04503 38489 ft 496 kts 64°
2026-04-25 22:04 46.83351 14.09147 38201 ft 496 kts 64°
2026-04-25 22:05 46.84681 14.13790 37942 ft 496 kts 64°
2026-04-25 22:05 46.86012 14.18444 37651 ft 495 kts 64°
2026-04-25 22:05 46.87336 14.23081 37380 ft 495 kts 64°
2026-04-25 22:05 46.88660 14.27732 37113 ft 495 kts 64°
2026-04-25 22:06 46.89981 14.32376 36839 ft 494 kts 64°
2026-04-25 22:06 46.91299 14.37019 36594 ft 494 kts 64°
2026-04-25 22:06 46.92614 14.41659 36334 ft 494 kts 64°
2026-04-25 22:06 46.93924 14.46294 36092 ft 493 kts 64°
2026-04-25 22:07 46.95233 14.50931 35840 ft 493 kts 65°
2026-04-25 22:07 46.96099 14.54004 35686 ft 493 kts 65°
2026-04-25 22:07 46.97844 14.60213 35345 ft 493 kts 65°
2026-04-25 22:07 46.99149 14.64861 35089 ft 493 kts 65°
2026-04-25 22:08 47.00448 14.69504 34838 ft 493 kts 65°
2026-04-25 22:08 47.01745 14.74146 34608 ft 492 kts 65°
2026-04-25 22:08 47.03041 14.78795 34373 ft 492 kts 65°
2026-04-25 22:08 47.04335 14.83440 34128 ft 492 kts 65°
2026-04-25 22:09 47.05622 14.88073 33666 ft 489 kts 65°
2026-04-25 22:09 47.06901 14.92685 32897 ft 488 kts 65°
2026-04-25 22:09 47.08159 14.97231 32120 ft 487 kts 65°
2026-04-25 22:09 47.09450 15.01900 31291 ft 488 kts 65°
2026-04-25 22:10 47.10723 15.06519 30460 ft 489 kts 65°
2026-04-25 22:10 47.11998 15.11152 29546 ft 491 kts 65°
2026-04-25 22:10 47.13256 15.15731 28861 ft 487 kts 65°
2026-04-25 22:10 47.14514 15.20324 28232 ft 482 kts 66°
2026-04-25 22:11 47.15757 15.24867 27600 ft 477 kts 66°
2026-04-25 22:11 47.16988 15.29373 26997 ft 473 kts 66°
2026-04-25 22:11 47.18205 15.33834 26392 ft 469 kts 66°
2026-04-25 22:11 47.19408 15.38261 25776 ft 465 kts 66°
2026-04-25 22:12 47.20603 15.42664 25176 ft 462 kts 66°
2026-04-25 22:12 47.21788 15.47039 24583 ft 459 kts 66°
2026-04-25 22:12 47.22966 15.51390 23991 ft 457 kts 66°
2026-04-25 22:12 47.23739 15.54255 23592 ft 455 kts 66°
2026-04-25 22:13 47.25291 15.60014 22732 ft 451 kts 66°
2026-04-25 22:13 47.26445 15.64306 22138 ft 447 kts 66°
2026-04-25 22:13 47.27580 15.68531 21560 ft 443 kts 66°
2026-04-25 22:13 47.28704 15.72728 20986 ft 439 kts 66°
2026-04-25 22:14 47.29822 15.76906 20382 ft 436 kts 66°
2026-04-25 22:14 47.30926 15.81036 19811 ft 432 kts 66°
2026-04-25 22:14 47.32021 15.85141 19227 ft 429 kts 66°
2026-04-25 22:14 47.33107 15.89218 18637 ft 425 kts 66°
2026-04-25 22:15 47.34183 15.93265 18004 ft 423 kts 66°
2026-04-25 22:15 47.35247 15.97280 17563 ft 419 kts 65°
2026-04-25 22:15 47.36423 16.01300 17489 ft 434 kts 59°
2026-04-25 22:16 47.39608 16.08864 16993 ft 433 kts 53°
2026-04-25 22:16 47.41273 16.12555 16745 ft 431 kts 53°
2026-04-25 22:16 47.42940 16.16232 16496 ft 430 kts 52°
2026-04-25 22:16 47.44600 16.19884 16231 ft 427 kts 52°
2026-04-25 22:17 47.46252 16.23519 15977 ft 426 kts 52°
2026-04-25 22:17 47.47903 16.27151 15727 ft 424 kts 52°
2026-04-25 22:17 47.49545 16.30766 15491 ft 423 kts 53°
2026-04-25 22:17 47.51178 16.34371 15238 ft 421 kts 53°
2026-04-25 22:18 47.52785 16.37917 14999 ft 420 kts 53°
2026-04-25 22:18 47.54406 16.41501 14755 ft 418 kts 53°
2026-04-25 22:18 47.56019 16.45071 14498 ft 417 kts 53°
2026-04-25 22:18 47.57627 16.48635 14263 ft 416 kts 53°
2026-04-25 22:19 47.59229 16.52190 14025 ft 414 kts 53°
2026-04-25 22:19 47.60819 16.55724 13683 ft 408 kts 53°
2026-04-25 22:19 47.62375 16.59190 13106 ft 400 kts 53°
2026-04-25 22:19 47.63906 16.62597 12562 ft 393 kts 53°
2026-04-25 22:20 47.65564 16.65699 12281 ft 375 kts 42°
2026-04-25 22:20 47.67514 16.68062 11958 ft 348 kts 27°
2026-04-25 22:20 47.69550 16.69721 11625 ft 322 kts 22°
2026-04-25 22:20 47.71500 16.71142 11214 ft 304 kts 21°
2026-04-25 22:21 47.73374 16.72472 10607 ft 295 kts 21°
2026-04-25 22:21 47.75211 16.73760 10044 ft 287 kts 21°
2026-04-25 22:21 47.76956 16.74983 9743 ft 268 kts 21°
2026-04-25 22:21 47.78600 16.76135 9355 ft 256 kts 21°
2026-04-25 22:22 47.80182 16.77237 8967 ft 244 kts 21°
2026-04-25 22:22 47.81667 16.78276 8743 ft 228 kts 21°
2026-04-25 22:22 47.83073 16.79257 8378 ft 219 kts 20°
2026-04-25 22:22 47.84443 16.80211 7949 ft 216 kts 20°
2026-04-25 22:23 47.85798 16.81155 7469 ft 213 kts 20°
2026-04-25 22:23 47.87133 16.82085 7012 ft 212 kts 20°
2026-04-25 22:23 47.88484 16.83023 6448 ft 216 kts 20°
2026-04-25 22:23 47.89840 16.83970 5981 ft 214 kts 20°
2026-04-25 22:24 47.91182 16.84925 5674 ft 215 kts 22°
2026-04-25 22:24 47.92296 16.86442 5405 ft 224 kts 54°
2026-04-25 22:24 47.92723 16.88695 5067 ft 233 kts 87°
2026-04-25 22:24 47.92356 16.91062 4704 ft 238 kts 110°
2026-04-25 22:25 47.91654 16.93298 4420 ft 239 kts 115°
2026-04-25 22:25 47.90896 16.95503 4188 ft 239 kts 115°
2026-04-25 22:25 47.90239 16.97399 4020 ft 238 kts 115°
2026-04-25 22:25 47.89769 16.99731 3983 ft 234 kts 87°
2026-04-25 22:26 47.90125 17.01991 3974 ft 219 kts 53°
2026-04-25 22:26 47.91172 17.03490 3998 ft 204 kts 19°
2026-04-25 22:26 47.92035 17.03973 3988 ft 199 kts
2026-04-25 22:26 47.93383 17.04452 3973 ft 199 kts
2026-04-25 22:27 47.94743 17.04869 3973 ft 200 kts
2026-04-25 22:27 47.96094 17.04826 3973 ft 192 kts 340°
2026-04-25 22:27 47.97277 17.03989 3973 ft 188 kts 315°
2026-04-25 22:27 47.98194 17.01822 3973 ft 188 kts 296°
2026-04-25 22:28 47.98455 17.00557 3969 ft 191 kts 282°
2026-04-25 22:28 47.98687 16.98598 3974 ft 191 kts 284°
2026-04-25 22:28 47.98954 16.96658 3973 ft 190 kts 289°
2026-04-25 22:28 47.99387 16.94803 3978 ft 189 kts 294°
2026-04-25 22:29 47.99754 16.92905 3981 ft 192 kts 283°
2026-04-25 22:29 48.00101 16.90992 3970 ft 191 kts 292°
2026-04-25 22:29 48.00611 16.89169 3972 ft 190 kts 297°
2026-04-25 22:30 48.01769 16.85623 3981 ft 186 kts 298°
2026-04-25 22:30 48.02308 16.83971 3987 ft 170 kts 298°
2026-04-25 22:30 48.02811 16.82407 4016 ft 166 kts 298°
2026-04-25 22:30 48.03142 16.81376 3994 ft 167 kts 298°
2026-04-25 22:31 48.03815 16.79285 3778 ft 167 kts 298°
2026-04-25 22:31 48.04325 16.77730 3534 ft 166 kts 297°
2026-04-25 22:31 48.04832 16.76181 3302 ft 166 kts 298°
2026-04-25 22:31 48.05333 16.74640 3084 ft 164 kts 298°
2026-04-25 22:32 48.05830 16.73117 2851 ft 163 kts 298°
2026-04-25 22:32 48.06327 16.71597 2640 ft 163 kts 298°
2026-04-25 22:32 48.06817 16.70094 2459 ft 162 kts 298°
2026-04-25 22:32 48.07298 16.68618 2215 ft 153 kts 298°
2026-04-25 22:33 48.07745 16.67246 2015 ft 141 kts 298°
2026-04-25 22:33 48.08155 16.65991 1843 ft 128 kts 297°
2026-04-25 22:33 48.08534 16.64826 1683 ft 123 kts 296°
2026-04-25 22:33 48.08910 16.63675 1498 ft 123 kts 295°
2026-04-25 22:34 48.09295 16.62489 1353 ft 129 kts 298°
2026-04-25 22:34 48.09692 16.61277 1168 ft 131 kts 296°
2026-04-25 22:34 48.10092 16.60045 998 ft 133 kts 295°
2026-04-25 22:34 48.10492 16.58818 803 ft 132 kts 294°
2026-04-25 22:35 48.10898 16.57568 658 ft 135 kts 296°
2026-04-25 22:35 48.11290 16.56371 630 ft 113 kts 296°
2026-04-25 22:35 48.11568 16.55523 626 ft 68 kts 296°
2026-04-25 22:35 48.11711 16.55084 624 ft 32 kts 296°
2026-04-25 22:36 48.11815 16.54797 629 ft 33 kts 303°
2026-04-25 22:36 48.11971 16.54571 629 ft 27 kts 337°
2026-04-25 22:36 48.12062 16.54557 623 ft 7 kts 11°
2026-04-25 22:36 48.12063 16.54557 622 ft 0 kts 11°
2026-04-25 22:37 48.12068 16.54559 622 ft 2 kts 11°
2026-04-25 22:38 48.12095 16.54568 624 ft 5 kts 18°
2026-04-25 22:38 48.12103 16.54601 629 ft 3 kts 97°
2026-04-25 22:38 48.12077 16.54639 629 ft 8 kts 130°
2026-04-25 22:38 48.12013 16.54795 627 ft 22 kts 114°
2026-04-25 22:39 48.11950 16.54995 629 ft 20 kts 116°
2026-04-25 22:39 48.11891 16.55176 625 ft 20 kts 116°
2026-04-25 22:39 48.11835 16.55379 629 ft 22 kts 117°
2026-04-25 22:39 48.11757 16.55586 629 ft 24 kts 119°
2026-04-25 22:40 48.11697 16.55787 625 ft 21 kts 113°
2026-04-25 22:40 48.11626 16.55994 624 ft 23 kts 117°
2026-04-25 22:40 48.11552 16.56219 627 ft 24 kts 116°
2026-04-25 22:40 48.11474 16.56456 629 ft 26 kts 115°
2026-04-25 22:41 48.11395 16.56705 629 ft 25 kts 114°
2026-04-25 22:41 48.11325 16.56920 628 ft 22 kts 116°
2026-04-25 22:41 48.11255 16.57129 629 ft 16 kts 116°
2026-04-25 22:41 48.11226 16.57235 624 ft 6 kts 90°
2026-04-25 22:42 48.11254 16.57281 629 ft 7 kts 38°
2026-04-25 22:42 48.11310 16.57327 624 ft 11 kts 19°
2026-04-25 22:42 48.11386 16.57383 629 ft 14 kts 29°
2026-04-25 22:42 48.11484 16.57454 622 ft 16 kts 18°
2026-04-25 22:43 48.11601 16.57433 629 ft 18 kts 345°
2026-04-25 22:43 48.11706 16.57388 627 ft 3 kts 345°
2026-04-25 22:43 48.11706 16.57387 627 ft 0 kts 345°
2026-04-25 22:44 48.11707 16.57387 627 ft 1 kts 345°
2026-04-25 22:44 48.11771 16.57363 623 ft 10 kts 351°
2026-04-25 22:45 48.11817 16.57415 629 ft 10 kts 52°
2026-04-25 22:45 48.11886 16.57436 626 ft 12 kts 351°
2026-04-25 22:45 48.11996 16.57391 628 ft 25 kts 345°
2026-04-25 22:45 48.12141 16.57332 622 ft 16 kts 342°
2026-04-25 22:46 48.12198 16.57237 629 ft 12 kts 300°
2026-04-25 22:46 48.12240 16.57113 629 ft 14 kts 295°
2026-04-25 22:46 48.12280 16.56991 626 ft 7 kts 308°
2026-04-25 22:46 48.12304 16.56989 629 ft 4 kts 12°
2026-04-25 22:47 48.12326 16.56992 629 ft 3 kts 11°
2026-04-25 22:47 48.12351 16.57009 628 ft 3 kts 25°
2026-04-25 22:47 48.12360 16.57015 629 ft 0 kts 25°
2026-04-25 22:47 48.12361 16.57016 629 ft 0 kts 25°
2026-04-25 22:48 48.12362 16.57017 629 ft 0 kts 26°
2026-04-25 22:49 48.12363 16.57018 629 ft 0 kts 28°